SWR40 LSZH-KLAX

Flight info

Callsign SWR40
Flight time 11h 44m
Altitude 32000
Route VEBIT T10 TORPA DCT REKLA DCT RLP DCT ROTSI DCT KOTUN DCT AMAXA DCT VESAN DCT RATUK DCT SOVAT L613 LEHOC DCT INPIP DCT TLA DCT GOW DCT ERAKA/M084F340 DCT 63N020W 67N030W 69N040W 70N050W 70N060W DCT ADSAM/N0479F360 DCT 69N070W 68N080W 65N092W 60N101W DCT MEETO Q896 BORIX/N0480F380 Q896 YQL J540 STIGS DCT REO J7 FMG/N0479F390 DCT FRASR DCT FIM SADDE8
Aircraft B77W/H-SDE1E2E3FGHIJ2J3J4J5M1RWXY/LB1D1

Departure

Time 2026-05-05 09:38
Airport Zürich Airport (LSZH)

Arrival

Time 2026-05-05 21:22
Airport Los Angeles International Airport (KLAX)
Time Latitude Longitude Altitude Speed Heading
2026-05-05 09:16 47.46200 8.55189 1390 ft 0 kts 184°
2026-05-05 09:25 47.46207 8.55189 1390 ft 2 kts 184°
2026-05-05 09:25 47.46223 8.55191 1390 ft 2 kts 184°
2026-05-05 09:26 47.46237 8.55194 1390 ft 2 kts 200°
2026-05-05 09:26 47.46251 8.55204 1390 ft 2 kts 218°
2026-05-05 09:26 47.46261 8.55219 1390 ft 2 kts 233°
2026-05-05 09:26 47.46268 8.55238 1390 ft 2 kts 250°
2026-05-05 09:27 47.46272 8.55260 1390 ft 2 kts 266°
2026-05-05 09:27 47.46271 8.55274 1391 ft 1 kts 276°
2026-05-05 09:27 47.46271 8.55275 1391 ft 0 kts 276°
2026-05-05 09:30 47.46273 8.55245 1390 ft 6 kts 274°
2026-05-05 09:30 47.46278 8.55166 1390 ft 7 kts 276°
2026-05-05 09:30 47.46283 8.55099 1390 ft 5 kts 275°
2026-05-05 09:30 47.46287 8.55045 1390 ft 4 kts 276°
2026-05-05 09:31 47.46290 8.55003 1390 ft 4 kts 276°
2026-05-05 09:31 47.46294 8.54946 1389 ft 7 kts 275°
2026-05-05 09:31 47.46301 8.54854 1387 ft 10 kts 276°
2026-05-05 09:31 47.46319 8.54755 1386 ft 9 kts 305°
2026-05-05 09:32 47.46366 8.54703 1386 ft 7 kts 332°
2026-05-05 09:32 47.46411 8.54672 1386 ft 6 kts 334°
2026-05-05 09:32 47.46447 8.54647 1386 ft 5 kts 334°
2026-05-05 09:32 47.46485 8.54621 1386 ft 7 kts 335°
2026-05-05 09:33 47.46538 8.54584 1386 ft 9 kts 334°
2026-05-05 09:33 47.46607 8.54535 1386 ft 11 kts 334°
2026-05-05 09:33 47.46689 8.54480 1386 ft 14 kts 335°
2026-05-05 09:33 47.46789 8.54421 1385 ft 16 kts 337°
2026-05-05 09:34 47.46899 8.54349 1385 ft 17 kts 335°
2026-05-05 09:34 47.47014 8.54274 1385 ft 18 kts 336°
2026-05-05 09:34 47.47138 8.54186 1383 ft 20 kts 334°
2026-05-05 09:34 47.47268 8.54097 1385 ft 20 kts 336°
2026-05-05 09:35 47.47397 8.54008 1386 ft 20 kts 334°
2026-05-05 09:35 47.47612 8.53859 1391 ft 12 kts 334°
2026-05-05 09:35 47.47678 8.53812 1393 ft 8 kts 335°
2026-05-05 09:36 47.47709 8.53767 1394 ft 4 kts 281°
2026-05-05 09:36 47.47704 8.53724 1394 ft 3 kts 248°
2026-05-05 09:36 47.47685 8.53690 1394 ft 6 kts 219°
2026-05-05 09:36 47.47637 8.53654 1393 ft 8 kts 201°
2026-05-05 09:37 47.47590 8.53624 1393 ft 6 kts 202°
2026-05-05 09:37 47.47548 8.53609 1392 ft 5 kts 173°
2026-05-05 09:37 47.47427 8.53690 1390 ft 43 kts 154°
2026-05-05 09:37 47.46968 8.54007 1383 ft 101 kts 155°
2026-05-05 09:38 47.46175 8.54553 1387 ft 151 kts 154°
2026-05-05 09:38 47.45101 8.55289 1517 ft 181 kts 155°
2026-05-05 09:38 47.43986 8.56057 2085 ft 178 kts 152°
2026-05-05 09:38 47.43057 8.57279 2611 ft 183 kts 118°
2026-05-05 09:39 47.42808 8.59084 3113 ft 188 kts 80°
2026-05-05 09:39 47.43390 8.60846 3477 ft 202 kts 44°
2026-05-05 09:39 47.44613 8.61904 3991 ft 210 kts 17°
2026-05-05 09:39 47.46064 8.62180 4575 ft 213 kts 354°
2026-05-05 09:40 47.47475 8.61625 5099 ft 215 kts 332°
2026-05-05 09:40 47.48568 8.60100 5447 ft 219 kts 293°
2026-05-05 09:40 47.48816 8.57929 5827 ft 223 kts 258°
2026-05-05 09:40 47.48189 8.55814 6127 ft 230 kts 229°
2026-05-05 09:41 47.47062 8.54099 6540 ft 238 kts 224°
2026-05-05 09:41 47.45963 8.52228 6910 ft 253 kts 231°
2026-05-05 09:41 47.44918 8.49979 7104 ft 276 kts 237°
2026-05-05 09:41 47.43943 8.47529 7760 ft 280 kts 238°
2026-05-05 09:42 47.42985 8.45038 8529 ft 280 kts 238°
2026-05-05 09:42 47.42022 8.42529 9233 ft 282 kts 238°
2026-05-05 09:42 47.41061 8.40029 9933 ft 283 kts 238°
2026-05-05 09:42 47.40073 8.37466 10400 ft 295 kts 238°
2026-05-05 09:43 47.39029 8.34760 10616 ft 315 kts 238°
2026-05-05 09:43 47.37947 8.31826 10854 ft 336 kts 241°
2026-05-05 09:43 47.36850 8.28700 11086 ft 356 kts 241°
2026-05-05 09:43 47.35692 8.25419 11535 ft 369 kts 241°
2026-05-05 09:44 47.34498 8.22052 12345 ft 371 kts 241°
2026-05-05 09:44 47.33307 8.18694 13194 ft 372 kts 242°
2026-05-05 09:44 47.32106 8.15316 13887 ft 376 kts 242°
2026-05-05 09:44 47.30901 8.11928 14576 ft 381 kts 242°
2026-05-05 09:45 47.29662 8.08442 15263 ft 386 kts 242°
2026-05-05 09:45 47.28502 8.04895 15941 ft 391 kts 248°
2026-05-05 09:45 47.27728 8.01019 16597 ft 397 kts 258°
2026-05-05 09:45 47.27435 7.96956 17220 ft 404 kts 268°
2026-05-05 09:46 47.27630 7.92809 17837 ft 410 kts 276°
2026-05-05 09:46 47.28011 7.88685 18421 ft 415 kts 276°
2026-05-05 09:46 47.28414 7.84466 19039 ft 421 kts 276°
2026-05-05 09:46 47.28824 7.80166 19692 ft 424 kts 276°
2026-05-05 09:47 47.29227 7.75907 20291 ft 428 kts 276°
2026-05-05 09:47 47.29639 7.71552 20874 ft 433 kts 276°
2026-05-05 09:47 47.30054 7.67145 21470 ft 436 kts 276°
2026-05-05 09:47 47.30554 7.62756 21999 ft 443 kts 282°
2026-05-05 09:48 47.31432 7.58378 22616 ft 446 kts 285°
2026-05-05 09:48 47.32369 7.54074 23155 ft 450 kts 285°
2026-05-05 09:48 47.33338 7.49635 23559 ft 457 kts 285°
2026-05-05 09:48 47.34311 7.45160 24005 ft 462 kts 285°
2026-05-05 09:49 47.35278 7.40704 24551 ft 465 kts 285°
2026-05-05 09:49 47.36269 7.36120 25081 ft 468 kts 285°
2026-05-05 09:49 47.37249 7.31582 25558 ft 472 kts 284°
2026-05-05 09:49 47.38240 7.26979 26029 ft 476 kts 284°
2026-05-05 09:50 47.39246 7.22293 26476 ft 480 kts 284°
2026-05-05 09:50 47.40250 7.17605 26914 ft 485 kts 284°
2026-05-05 09:50 47.41112 7.12807 27333 ft 486 kts 279°
2026-05-05 09:50 47.41839 7.07935 27754 ft 490 kts 278°
2026-05-05 09:51 47.42557 7.03035 28245 ft 492 kts 278°
2026-05-05 09:51 47.43277 6.98113 28689 ft 496 kts 278°
2026-05-05 09:51 47.44004 6.93120 29079 ft 500 kts 278°
2026-05-05 09:51 47.44734 6.88106 29588 ft 501 kts 278°
2026-05-05 09:52 47.45461 6.83104 30259 ft 498 kts 278°
2026-05-05 09:52 47.46179 6.78143 30935 ft 495 kts 278°
2026-05-05 09:52 47.46896 6.73177 31529 ft 492 kts 278°
2026-05-05 09:52 47.47604 6.68250 31874 ft 493 kts 278°
2026-05-05 09:53 47.48519 6.58140 31879 ft 488 kts 272°
2026-05-05 09:53 47.49230 6.48179 31878 ft 488 kts 271°
2026-05-05 09:54 47.49934 6.38221 31886 ft 488 kts 271°
2026-05-05 09:54 47.50634 6.28228 31881 ft 488 kts 271°
2026-05-05 09:55 47.51323 6.18250 31880 ft 490 kts 271°
2026-05-05 09:55 47.52004 6.08296 31880 ft 490 kts 271°
2026-05-05 09:56 47.52679 5.98277 31873 ft 490 kts 271°
2026-05-05 09:56 47.53962 5.88384 31871 ft 498 kts 286°
2026-05-05 09:57 47.57226 5.79276 31875 ft 508 kts 304°
2026-05-05 09:57 47.61933 5.71428 31874 ft 510 kts 310°
2026-05-05 09:58 47.66744 5.63739 31872 ft 511 kts 310°
2026-05-05 09:58 47.71548 5.56003 31870 ft 511 kts 310°
2026-05-05 09:59 47.76390 5.48163 31871 ft 511 kts 310°
2026-05-05 09:59 47.81166 5.40395 31867 ft 510 kts 310°
2026-05-05 10:00 47.85946 5.32593 31870 ft 510 kts 309°
2026-05-05 10:00 47.90663 5.24868 31878 ft 509 kts 309°
2026-05-05 10:01 47.95456 5.16993 31870 ft 510 kts 309°
2026-05-05 10:01 48.00229 5.09126 31859 ft 511 kts 309°
2026-05-05 10:02 48.04975 5.01278 31856 ft 511 kts 309°
2026-05-05 10:02 48.09728 4.93398 31852 ft 511 kts 309°
2026-05-05 10:03 48.14501 4.85459 31840 ft 510 kts 309°
2026-05-05 10:03 48.19221 4.77584 31838 ft 510 kts 309°
2026-05-05 10:04 48.23940 4.69690 31840 ft 510 kts 309°
2026-05-05 10:04 48.28678 4.61737 31839 ft 510 kts 310°
2026-05-05 10:05 48.33400 4.53787 31841 ft 509 kts 309°
2026-05-05 10:05 48.38115 4.45825 31840 ft 510 kts 309°
2026-05-05 10:06 48.42830 4.37840 31844 ft 509 kts 309°
2026-05-05 10:06 48.47540 4.29839 31847 ft 507 kts 308°
2026-05-05 10:07 48.52206 4.21889 31846 ft 508 kts 309°
2026-05-05 10:07 48.56884 4.13894 31848 ft 508 kts 308°
2026-05-05 10:08 48.61571 4.05858 31848 ft 507 kts 308°
2026-05-05 10:08 48.66199 3.97900 31848 ft 506 kts 308°
2026-05-05 10:09 48.70865 3.89861 31844 ft 507 kts 310°
2026-05-05 10:09 48.76250 3.82939 31850 ft 511 kts 322°
2026-05-05 10:10 48.82057 3.76609 31840 ft 510 kts 323°
2026-05-05 10:10 48.87819 3.70312 31833 ft 512 kts 323°
2026-05-05 10:11 48.93576 3.63997 31834 ft 511 kts 322°
2026-05-05 10:11 48.99319 3.57676 31833 ft 511 kts 323°
2026-05-05 10:12 49.05044 3.51354 31837 ft 510 kts 323°
2026-05-05 10:12 49.10758 3.45025 31834 ft 509 kts 323°
2026-05-05 10:13 49.16456 3.38696 31823 ft 509 kts 323°
2026-05-05 10:13 49.22168 3.32331 31834 ft 509 kts 322°
2026-05-05 10:14 49.27908 3.25917 31842 ft 508 kts 322°
2026-05-05 10:14 49.33596 3.19542 31846 ft 507 kts 322°
2026-05-05 10:15 49.39285 3.13146 31845 ft 510 kts 322°
2026-05-05 10:15 49.45004 3.06699 31854 ft 508 kts 322°
2026-05-05 10:16 49.50680 3.00280 31868 ft 507 kts 322°
2026-05-05 10:16 49.56342 2.93859 31876 ft 506 kts 322°
2026-05-05 10:17 49.62003 2.87421 31876 ft 505 kts 322°
2026-05-05 10:17 49.67658 2.80970 31878 ft 506 kts 322°
2026-05-05 10:18 49.73286 2.74530 31872 ft 505 kts 322°
2026-05-05 10:18 49.78905 2.68100 31884 ft 505 kts 323°
2026-05-05 10:19 49.84635 2.61758 31885 ft 504 kts 323°
2026-05-05 10:19 49.90302 2.55474 31884 ft 504 kts 323°
2026-05-05 10:20 49.95999 2.49132 31893 ft 503 kts 323°
2026-05-05 10:20 50.01665 2.42801 31881 ft 502 kts 323°
2026-05-05 10:21 50.07362 2.36414 31891 ft 502 kts 323°
2026-05-05 10:21 50.13001 2.30072 31885 ft 500 kts 322°
2026-05-05 10:22 50.18591 2.23766 31889 ft 500 kts 322°
2026-05-05 10:22 50.24210 2.17409 31890 ft 498 kts 323°
2026-05-05 10:23 50.29796 2.11069 31906 ft 498 kts 323°
2026-05-05 10:23 50.35430 2.04656 31916 ft 497 kts 323°
2026-05-05 10:24 50.40737 1.97857 31920 ft 496 kts 317°
2026-05-05 10:24 50.45925 1.90781 31921 ft 495 kts 317°
2026-05-05 10:25 50.51104 1.83700 31931 ft 495 kts 317°
2026-05-05 10:25 50.56274 1.76612 31934 ft 495 kts 317°
2026-05-05 10:26 50.61413 1.69548 31939 ft 493 kts 318°
2026-05-05 10:26 50.66571 1.62436 31938 ft 494 kts 318°
2026-05-05 10:27 50.71730 1.55296 31940 ft 493 kts 317°
2026-05-05 10:27 50.76867 1.48163 31942 ft 492 kts 317°
2026-05-05 10:28 50.81982 1.41045 31942 ft 493 kts 318°
2026-05-05 10:28 50.87102 1.33902 31948 ft 492 kts 317°
2026-05-05 10:29 50.92226 1.26730 31951 ft 492 kts 317°
2026-05-05 10:29 50.97357 1.19528 31954 ft 492 kts 317°
2026-05-05 10:30 51.02466 1.12333 31960 ft 491 kts 317°
2026-05-05 10:30 51.07666 1.05370 31963 ft 492 kts 323°
2026-05-05 10:31 51.13285 0.99140 31957 ft 491 kts 324°
2026-05-05 10:31 51.18870 0.92965 31959 ft 492 kts 324°
2026-05-05 10:32 51.24474 0.86745 31958 ft 491 kts 324°
2026-05-05 10:32 51.30092 0.80486 31960 ft 493 kts 324°
2026-05-05 10:33 51.35689 0.74230 31959 ft 492 kts 324°
2026-05-05 10:33 51.41269 0.67973 31963 ft 490 kts 324°
2026-05-05 10:34 51.46840 0.61705 31967 ft 491 kts 324°
2026-05-05 10:34 51.52407 0.55424 31968 ft 489 kts 324°
2026-05-05 10:35 51.57954 0.49146 31971 ft 488 kts 323°
2026-05-05 10:35 51.63505 0.42844 31973 ft 488 kts 323°
2026-05-05 10:36 51.69028 0.36553 31970 ft 488 kts 323°
2026-05-05 10:36 51.74543 0.30254 31971 ft 488 kts 322°
2026-05-05 10:37 51.80116 0.23868 31980 ft 486 kts 322°
2026-05-05 10:37 51.85622 0.17539 31981 ft 487 kts 322°
2026-05-05 10:38 51.91118 0.11203 31982 ft 487 kts 322°
2026-05-05 10:38 51.96630 0.04829 31981 ft 487 kts 322°
2026-05-05 10:39 52.02125 -0.01514 31973 ft 486 kts 325°
2026-05-05 10:39 52.07991 -0.06852 31984 ft 487 kts 330°
2026-05-05 10:40 52.13956 -0.12055 31977 ft 485 kts 330°
2026-05-05 10:40 52.19884 -0.17251 31975 ft 487 kts 330°
2026-05-05 10:41 52.25812 -0.22468 31970 ft 485 kts 330°
2026-05-05 10:41 52.31746 -0.27709 31974 ft 485 kts 330°
2026-05-05 10:42 52.40629 -0.35590 31974 ft 487 kts 330°
2026-05-05 10:43 52.46563 -0.40876 31978 ft 485 kts 331°
2026-05-05 10:43 52.52501 -0.46181 31977 ft 486 kts 331°
2026-05-05 10:44 52.58379 -0.51450 31986 ft 486 kts 331°
2026-05-05 10:44 52.64320 -0.56792 31986 ft 486 kts 331°
2026-05-05 10:45 52.70264 -0.62153 31986 ft 486 kts 332°
2026-05-05 10:45 52.76126 -0.67457 31989 ft 484 kts 331°
2026-05-05 10:46 52.82008 -0.72796 31983 ft 483 kts 331°
2026-05-05 10:46 52.87888 -0.78148 31986 ft 483 kts 332°
2026-05-05 10:47 52.93748 -0.83500 31992 ft 482 kts 332°
2026-05-05 10:47 52.99607 -0.88867 31991 ft 480 kts 332°
2026-05-05 10:48 53.05410 -0.94198 31995 ft 480 kts 332°
2026-05-05 10:48 53.11260 -0.99585 31994 ft 480 kts 332°
2026-05-05 10:49 53.17053 -1.04938 31991 ft 480 kts 332°
2026-05-05 10:49 53.22903 -1.10360 31990 ft 481 kts 332°
2026-05-05 10:50 53.28747 -1.15794 31988 ft 482 kts 332°
2026-05-05 10:50 53.34564 -1.21219 31987 ft 482 kts 332°
2026-05-05 10:51 53.40439 -1.26716 31989 ft 482 kts 331°
2026-05-05 10:51 53.46258 -1.32186 31992 ft 482 kts 332°
2026-05-05 10:52 53.52056 -1.37655 31990 ft 476 kts 330°
2026-05-05 10:52 53.57781 -1.43074 31994 ft 475 kts 330°
2026-05-05 10:53 53.63515 -1.48518 31998 ft 472 kts 330°
2026-05-05 10:53 53.69203 -1.53937 31998 ft 473 kts 330°
2026-05-05 10:54 53.74712 -1.59972 31997 ft 470 kts 319°
2026-05-05 10:54 53.79571 -1.67336 32005 ft 470 kts 316°
2026-05-05 10:55 53.84387 -1.74747 32008 ft 469 kts 316°
2026-05-05 10:55 53.89185 -1.82153 32009 ft 470 kts 316°
2026-05-05 10:56 53.93988 -1.89590 32007 ft 469 kts 316°
2026-05-05 10:56 53.98798 -1.97063 32001 ft 469 kts 316°
2026-05-05 10:57 54.03901 -2.03888 32007 ft 472 kts 327°
2026-05-05 10:57 54.09557 -2.09573 32002 ft 473 kts 328°
2026-05-05 10:58 54.15198 -2.15225 31997 ft 471 kts 328°
2026-05-05 10:58 54.20818 -2.20879 31992 ft 471 kts 328°
2026-05-05 10:59 54.26436 -2.26552 31981 ft 470 kts 328°
2026-05-05 10:59 54.32067 -2.32258 31986 ft 470 kts 327°
2026-05-05 11:00 54.37647 -2.37932 31993 ft 470 kts 327°
2026-05-05 11:00 54.43281 -2.43678 31999 ft 470 kts 327°
2026-05-05 11:01 54.48875 -2.49403 32006 ft 469 kts 327°
2026-05-05 11:01 54.54439 -2.55116 32003 ft 469 kts 327°
2026-05-05 11:02 54.60039 -2.60884 32005 ft 469 kts 327°
2026-05-05 11:02 54.65631 -2.66662 32011 ft 469 kts 326°
2026-05-05 11:03 54.71196 -2.72432 32014 ft 469 kts 326°
2026-05-05 11:03 54.76765 -2.78224 32017 ft 468 kts 326°
2026-05-05 11:04 54.82328 -2.84029 32023 ft 469 kts 326°
2026-05-05 11:04 54.87918 -2.89719 32022 ft 471 kts 331°
2026-05-05 11:05 54.93981 -2.94218 32033 ft 473 kts 334°
2026-05-05 11:05 55.00029 -2.98582 32029 ft 473 kts 334°
2026-05-05 11:06 55.06104 -3.02989 32034 ft 472 kts 334°
2026-05-05 11:06 55.12126 -3.07377 32028 ft 472 kts 334°
2026-05-05 11:07 55.18179 -3.11805 32034 ft 471 kts 334°
2026-05-05 11:07 55.24209 -3.16231 32025 ft 471 kts 334°
2026-05-05 11:08 55.30193 -3.20639 32024 ft 471 kts 334°
2026-05-05 11:08 55.36220 -3.25095 32028 ft 470 kts 334°
2026-05-05 11:09 55.42215 -3.29541 32024 ft 470 kts 334°
2026-05-05 11:09 55.47936 -3.34998 32024 ft 465 kts 320°
2026-05-05 11:10 55.52396 -3.43001 32015 ft 459 kts 303°
2026-05-05 11:10 55.55798 -3.52431 32016 ft 458 kts 300°
2026-05-05 11:11 55.59138 -3.62048 32022 ft 459 kts 300°
2026-05-05 11:11 55.62439 -3.71627 32025 ft 458 kts 299°
2026-05-05 11:12 55.65742 -3.81273 32024 ft 458 kts 299°
2026-05-05 11:12 55.69044 -3.90963 32030 ft 458 kts 299°
2026-05-05 11:13 55.72302 -4.00568 32022 ft 458 kts 299°
2026-05-05 11:13 55.75562 -4.10222 32025 ft 458 kts 300°
2026-05-05 11:14 55.78833 -4.19948 32039 ft 458 kts 300°
2026-05-05 11:14 55.82088 -4.29664 32038 ft 458 kts 300°
2026-05-05 11:15 55.85333 -4.39394 32044 ft 458 kts 300°
2026-05-05 11:15 55.88841 -4.48813 32050 ft 459 kts 306°
2026-05-05 11:16 55.92695 -4.57801 32037 ft 459 kts 306°
2026-05-05 11:16 55.96560 -4.66853 32041 ft 458 kts 306°
2026-05-05 11:17 56.00426 -4.75952 32043 ft 458 kts 305°
2026-05-05 11:17 56.04245 -4.84979 32038 ft 458 kts 305°
2026-05-05 11:18 56.08088 -4.94102 32040 ft 458 kts 305°
2026-05-05 11:18 56.11890 -5.03160 32043 ft 457 kts 305°
2026-05-05 11:19 56.15704 -5.12283 32046 ft 457 kts 305°
2026-05-05 11:19 56.19504 -5.21408 32049 ft 456 kts 305°
2026-05-05 11:20 56.23299 -5.30554 32047 ft 456 kts 305°
2026-05-05 11:20 56.27065 -5.39664 32048 ft 456 kts 305°
2026-05-05 11:21 56.30821 -5.48784 32057 ft 455 kts 305°
2026-05-05 11:21 56.34562 -5.57904 32059 ft 455 kts 305°
2026-05-05 11:22 56.38306 -5.67065 32066 ft 455 kts 304°
2026-05-05 11:22 56.42030 -5.76208 32077 ft 454 kts 304°
2026-05-05 11:23 56.45761 -5.85407 32076 ft 454 kts 304°
2026-05-05 11:23 56.49453 -5.94541 32077 ft 453 kts 304°
2026-05-05 11:24 56.53160 -6.03750 32081 ft 452 kts 304°
2026-05-05 11:24 56.56830 -6.12899 32084 ft 452 kts 304°
2026-05-05 11:25 56.60519 -6.22132 32092 ft 451 kts 304°
2026-05-05 11:25 56.64168 -6.31299 32096 ft 451 kts 304°
2026-05-05 11:26 56.67838 -6.40554 32104 ft 449 kts 304°
2026-05-05 11:26 56.71473 -6.49757 32109 ft 449 kts 304°
2026-05-05 11:27 56.75107 -6.58990 32109 ft 450 kts 304°
2026-05-05 11:27 56.78730 -6.68231 32127 ft 448 kts 303°
2026-05-05 11:28 56.82333 -6.77458 32128 ft 448 kts 303°
2026-05-05 11:28 56.85939 -6.86726 32134 ft 448 kts 303°
2026-05-05 11:29 56.89509 -6.95937 32138 ft 448 kts 303°
2026-05-05 11:29 56.93092 -7.05217 32132 ft 448 kts 303°
2026-05-05 11:30 56.96674 -7.14530 32140 ft 446 kts 303°
2026-05-05 11:30 57.00253 -7.23873 32640 ft 451 kts 303°
2026-05-05 11:30 57.02044 -7.28559 33277 ft 445 kts 303°
2026-05-05 11:31 57.03791 -7.33140 33809 ft 442 kts 303°
2026-05-05 11:31 57.05555 -7.37776 34115 ft 443 kts 303°
2026-05-05 11:31 57.07299 -7.42367 34138 ft 444 kts 303°
2026-05-05 11:32 57.10819 -7.51661 34135 ft 442 kts 303°
2026-05-05 11:32 57.14292 -7.60868 34144 ft 441 kts 303°
2026-05-05 11:33 57.17777 -7.70142 34151 ft 441 kts 302°
2026-05-05 11:33 57.21258 -7.79439 34153 ft 440 kts 302°
2026-05-05 11:34 57.24718 -7.88715 34153 ft 440 kts 302°
2026-05-05 11:34 57.28151 -7.97956 34159 ft 441 kts 302°
2026-05-05 11:35 57.31612 -8.07307 34156 ft 440 kts 302°
2026-05-05 11:35 57.35054 -8.16643 34159 ft 440 kts 302°
2026-05-05 11:36 57.38477 -8.25963 34160 ft 440 kts 302°
2026-05-05 11:36 57.41905 -8.35334 34159 ft 440 kts 302°
2026-05-05 11:37 57.45314 -8.44691 34158 ft 439 kts 302°
2026-05-05 11:37 57.48704 -8.54028 34159 ft 439 kts 302°
2026-05-05 11:38 57.52112 -8.63454 34166 ft 439 kts 302°
2026-05-05 11:38 57.55491 -8.72838 34172 ft 439 kts 302°
2026-05-05 11:39 57.58875 -8.82271 34175 ft 439 kts 302°
2026-05-05 11:39 57.62246 -8.91705 34169 ft 439 kts 301°
2026-05-05 11:40 57.65609 -9.01153 34169 ft 439 kts 302°
2026-05-05 11:40 57.68954 -9.10587 34170 ft 439 kts 302°
2026-05-05 11:41 57.72297 -9.20055 34172 ft 438 kts 302°
2026-05-05 11:41 57.75642 -9.29566 34179 ft 438 kts 301°
2026-05-05 11:42 57.78959 -9.39033 34180 ft 437 kts 301°
2026-05-05 11:42 57.82268 -9.48517 34182 ft 438 kts 301°
2026-05-05 11:43 57.85583 -9.58054 34186 ft 437 kts 301°
2026-05-05 11:43 57.88888 -9.67603 34189 ft 438 kts 301°
2026-05-05 11:44 57.92181 -9.77154 34198 ft 439 kts 301°
2026-05-05 11:44 57.95477 -9.86753 34192 ft 438 kts 301°
2026-05-05 11:45 57.98755 -9.96335 34192 ft 437 kts 301°
2026-05-05 11:45 58.02731 -10.04951 34194 ft 441 kts 316°
2026-05-05 11:46 58.07460 -10.12305 34197 ft 442 kts 317°
2026-05-05 11:46 58.12159 -10.19706 34196 ft 443 kts 316°
2026-05-05 11:47 58.16867 -10.27237 34195 ft 443 kts 316°
2026-05-05 11:47 58.21516 -10.34739 34198 ft 442 kts 316°
2026-05-05 11:48 58.28505 -10.46105 34198 ft 442 kts 316°
2026-05-05 11:48 58.33112 -10.53640 34198 ft 441 kts 316°
2026-05-05 11:49 58.37758 -10.61272 34196 ft 441 kts 316°
2026-05-05 11:49 58.42370 -10.68878 34206 ft 441 kts 315°
2026-05-05 11:50 58.46976 -10.76504 34208 ft 440 kts 315°
2026-05-05 11:50 58.51568 -10.84132 34207 ft 439 kts 315°
2026-05-05 11:51 58.56153 -10.91778 34209 ft 439 kts 315°
2026-05-05 11:51 58.60741 -10.99456 34210 ft 439 kts 315°
2026-05-05 11:52 58.65305 -11.07123 34212 ft 438 kts 315°
2026-05-05 11:52 58.69865 -11.14809 34213 ft 438 kts 315°
2026-05-05 11:53 58.74416 -11.22509 34213 ft 438 kts 315°
2026-05-05 11:53 58.78976 -11.30251 34215 ft 436 kts 315°
2026-05-05 11:54 58.83505 -11.37969 34214 ft 437 kts 315°
2026-05-05 11:54 58.88020 -11.45692 34216 ft 436 kts 315°
2026-05-05 11:55 58.92535 -11.53442 34212 ft 436 kts 315°
2026-05-05 11:55 58.97062 -11.61241 34218 ft 436 kts 315°
2026-05-05 11:56 59.01559 -11.69018 34224 ft 436 kts 314°
2026-05-05 11:56 59.06062 -11.76833 34222 ft 435 kts 315°
2026-05-05 11:57 59.10565 -11.84677 34218 ft 434 kts 315°
2026-05-05 11:57 59.15038 -11.92497 34220 ft 435 kts 314°
2026-05-05 11:58 59.19503 -12.00332 34222 ft 435 kts 315°
2026-05-05 11:58 59.23980 -12.08218 34219 ft 435 kts 315°
2026-05-05 11:59 59.28462 -12.16141 34223 ft 434 kts 315°
2026-05-05 11:59 59.32930 -12.24068 34221 ft 435 kts 315°
2026-05-05 12:00 59.37389 -12.32007 34220 ft 434 kts 315°
2026-05-05 12:00 59.41817 -12.39924 34223 ft 433 kts 315°
2026-05-05 12:01 59.46244 -12.47866 34226 ft 432 kts 315°
2026-05-05 12:01 59.50665 -12.55828 34227 ft 432 kts 315°
2026-05-05 12:02 59.55065 -12.63781 34231 ft 434 kts 315°
2026-05-05 12:02 59.59478 -12.71785 34237 ft 433 kts 314°
2026-05-05 12:03 59.63885 -12.79812 34238 ft 432 kts 314°
2026-05-05 12:03 59.68292 -12.87866 34239 ft 434 kts 314°
2026-05-05 12:04 59.72684 -12.95925 34240 ft 433 kts 314°
2026-05-05 12:04 59.77083 -13.04026 34237 ft 434 kts 314°
2026-05-05 12:05 59.81470 -13.12135 34240 ft 433 kts 314°
2026-05-05 12:05 59.85871 -13.20302 34237 ft 433 kts 315°
2026-05-05 12:06 59.90259 -13.28475 34236 ft 433 kts 315°
2026-05-05 12:06 59.94622 -13.36631 34244 ft 432 kts 315°
2026-05-05 12:07 59.98996 -13.44840 34239 ft 433 kts 315°
2026-05-05 12:07 60.03358 -13.53058 34227 ft 432 kts 315°
2026-05-05 12:08 60.07694 -13.61257 34221 ft 430 kts 315°
2026-05-05 12:08 60.12019 -13.69468 34233 ft 430 kts 314°
2026-05-05 12:09 60.16307 -13.77638 34234 ft 429 kts 314°
2026-05-05 12:09 60.20616 -13.85881 34235 ft 427 kts 314°
2026-05-05 12:10 60.24900 -13.94107 34235 ft 426 kts 314°
2026-05-05 12:10 60.29133 -14.02264 34234 ft 425 kts 314°
2026-05-05 12:11 60.33405 -14.10529 34232 ft 426 kts 314°
2026-05-05 12:11 60.37656 -14.18785 34232 ft 425 kts 314°
2026-05-05 12:12 60.41890 -14.27040 34230 ft 425 kts 314°
2026-05-05 12:12 60.46097 -14.35271 34228 ft 424 kts 314°
2026-05-05 12:13 60.50317 -14.43560 34228 ft 423 kts 314°
2026-05-05 12:13 60.54500 -14.51810 34227 ft 422 kts 314°
2026-05-05 12:14 60.58678 -14.60079 34225 ft 420 kts 314°
2026-05-05 12:14 60.62857 -14.68383 34236 ft 420 kts 313°
2026-05-05 12:15 60.66991 -14.76628 34235 ft 418 kts 313°
2026-05-05 12:15 60.71137 -14.84929 34234 ft 419 kts 313°
2026-05-05 12:16 60.75273 -14.93240 34230 ft 416 kts 313°
2026-05-05 12:16 60.79351 -15.01467 34233 ft 417 kts 313°
2026-05-05 12:17 60.83466 -15.09800 34237 ft 416 kts 313°
2026-05-05 12:17 60.87550 -15.18103 34245 ft 416 kts 313°
2026-05-05 12:18 60.91629 -15.26426 34241 ft 414 kts 313°
2026-05-05 12:18 60.95710 -15.34787 34241 ft 414 kts 313°
2026-05-05 12:19 60.99760 -15.43115 34239 ft 415 kts 313°
2026-05-05 12:19 61.03803 -15.51460 34233 ft 413 kts 313°
2026-05-05 12:20 61.07853 -15.59852 34236 ft 414 kts 313°
2026-05-05 12:20 61.11884 -15.68236 34236 ft 414 kts 312°
2026-05-05 12:21 61.15898 -15.76617 34237 ft 413 kts 312°
2026-05-05 12:21 61.19906 -15.85019 34240 ft 412 kts 312°
2026-05-05 12:22 61.23917 -15.93459 34238 ft 413 kts 312°
2026-05-05 12:22 61.27943 -16.01962 34242 ft 413 kts 312°
2026-05-05 12:23 61.31945 -16.10450 34230 ft 413 kts 312°
2026-05-05 12:23 61.35959 -16.18994 34239 ft 414 kts 311°
2026-05-05 12:24 61.39948 -16.27517 34221 ft 413 kts 312°
2026-05-05 12:24 61.43925 -16.36051 34244 ft 413 kts 312°
2026-05-05 12:25 61.47931 -16.44679 34243 ft 414 kts 312°
2026-05-05 12:25 61.51892 -16.53243 34223 ft 411 kts 312°
2026-05-05 12:26 61.55882 -16.61905 34195 ft 412 kts 312°
2026-05-05 12:26 61.59816 -16.70480 34249 ft 412 kts 311°
2026-05-05 12:27 61.63788 -16.79168 34229 ft 412 kts 311°
2026-05-05 12:27 61.67723 -16.87813 34222 ft 412 kts 311°
2026-05-05 12:28 61.71662 -16.96499 34233 ft 413 kts 311°
2026-05-05 12:28 61.75602 -17.05221 34242 ft 412 kts 311°
2026-05-05 12:29 61.79517 -17.13924 34231 ft 411 kts 311°
2026-05-05 12:29 61.83458 -17.22719 34222 ft 412 kts 311°
2026-05-05 12:30 61.87362 -17.31465 34237 ft 411 kts 311°
2026-05-05 12:30 61.91268 -17.40252 34221 ft 411 kts 311°
2026-05-05 12:31 61.95169 -17.49061 34215 ft 410 kts 311°
2026-05-05 12:31 61.99071 -17.57909 34231 ft 411 kts 311°
2026-05-05 12:32 62.02954 -17.66750 34217 ft 410 kts 310°
2026-05-05 12:32 62.06832 -17.75613 34197 ft 412 kts 310°
2026-05-05 12:33 62.10727 -17.84553 34238 ft 413 kts 310°
2026-05-05 12:33 62.14651 -17.93594 34242 ft 414 kts 310°
2026-05-05 12:34 62.18518 -18.02540 34220 ft 412 kts 310°
2026-05-05 12:34 62.22391 -18.11538 34252 ft 413 kts 310°
2026-05-05 12:35 62.26261 -18.20565 34251 ft 415 kts 311°
2026-05-05 12:35 62.30132 -18.29632 34210 ft 415 kts 311°
2026-05-05 12:36 62.34020 -18.38775 34230 ft 416 kts 311°
2026-05-05 12:36 62.37899 -18.47936 34189 ft 414 kts 311°
2026-05-05 12:37 62.41773 -18.57123 34271 ft 417 kts 311°
2026-05-05 12:37 62.45667 -18.66396 34204 ft 418 kts 310°
2026-05-05 12:38 62.49554 -18.75691 34245 ft 419 kts 310°
2026-05-05 12:38 62.53407 -18.84943 34222 ft 418 kts 310°
2026-05-05 12:39 62.57303 -18.94337 34262 ft 420 kts 310°
2026-05-05 12:39 62.61176 -19.03715 34202 ft 419 kts 310°
2026-05-05 12:40 62.65051 -19.13141 34195 ft 419 kts 310°
2026-05-05 12:40 62.68916 -19.22580 34201 ft 420 kts 310°
2026-05-05 12:41 62.72785 -19.32069 34208 ft 419 kts 310°
2026-05-05 12:41 62.76642 -19.41570 34193 ft 422 kts 310°
2026-05-05 12:42 62.80504 -19.51123 34215 ft 420 kts 310°
2026-05-05 12:42 62.84376 -19.60744 34222 ft 422 kts 311°
2026-05-05 12:43 62.88211 -19.70312 34205 ft 421 kts 310°
2026-05-05 12:43 62.92043 -19.79917 34192 ft 421 kts 310°
2026-05-05 12:44 62.95903 -19.89632 34263 ft 423 kts 310°
2026-05-05 12:44 62.99720 -19.99280 34251 ft 423 kts 310°
2026-05-05 12:45 63.03921 -20.08307 34211 ft 424 kts 317°
2026-05-05 12:45 63.08314 -20.16868 34207 ft 424 kts 317°
2026-05-05 12:46 63.12698 -20.25563 34210 ft 423 kts 316°
2026-05-05 12:46 63.17034 -20.34259 34243 ft 424 kts 316°
2026-05-05 12:47 63.21401 -20.43087 34228 ft 424 kts 316°
2026-05-05 12:47 63.25717 -20.51866 34240 ft 425 kts 316°
2026-05-05 12:48 63.30051 -20.60727 34212 ft 424 kts 316°
2026-05-05 12:48 63.34396 -20.69653 34240 ft 425 kts 316°
2026-05-05 12:49 63.38718 -20.78572 34219 ft 425 kts 316°
2026-05-05 12:49 63.43027 -20.87503 34232 ft 426 kts 316°
2026-05-05 12:50 63.47354 -20.96511 34237 ft 427 kts 316°
2026-05-05 12:50 63.51657 -21.05507 34224 ft 424 kts 316°
2026-05-05 12:51 63.55964 -21.14553 34227 ft 425 kts 316°
2026-05-05 12:51 63.60278 -21.23653 34230 ft 426 kts 316°
2026-05-05 12:52 63.64558 -21.32718 34254 ft 427 kts 316°
2026-05-05 12:52 63.68860 -21.41871 34208 ft 426 kts 316°
2026-05-05 12:53 63.73154 -21.51047 34220 ft 427 kts 316°
2026-05-05 12:53 63.77447 -21.60262 34216 ft 427 kts 316°
2026-05-05 12:54 63.83860 -21.74103 34226 ft 428 kts 315°
2026-05-05 12:55 63.88161 -21.83438 34230 ft 428 kts 315°
2026-05-05 12:55 63.92454 -21.92797 34252 ft 428 kts 315°
2026-05-05 12:56 63.96730 -22.02161 34251 ft 428 kts 315°
2026-05-05 12:56 64.00996 -22.11544 34253 ft 428 kts 315°
2026-05-05 12:57 64.05241 -22.20921 34255 ft 428 kts 315°
2026-05-05 12:57 64.09512 -22.30401 34261 ft 428 kts 315°
2026-05-05 12:58 64.13741 -22.39829 34274 ft 430 kts 315°
2026-05-05 12:58 64.18030 -22.49435 34263 ft 430 kts 315°
2026-05-05 12:59 64.22263 -22.58957 34270 ft 431 kts 315°
2026-05-05 12:59 64.26535 -22.68612 34275 ft 431 kts 314°
2026-05-05 13:00 64.32918 -22.83119 34269 ft 431 kts 314°
2026-05-05 13:01 64.41406 -23.02569 34289 ft 432 kts 315°
2026-05-05 13:01 64.45665 -23.12395 34283 ft 432 kts 315°
2026-05-05 13:02 64.49891 -23.22191 34289 ft 432 kts 315°
2026-05-05 13:02 64.54104 -23.32000 34297 ft 432 kts 315°
2026-05-05 13:03 64.58348 -23.41931 34293 ft 432 kts 315°
2026-05-05 13:03 64.62559 -23.51828 34287 ft 432 kts 315°
2026-05-05 13:04 64.66776 -23.61789 34302 ft 434 kts 315°
2026-05-05 13:04 64.70994 -23.71795 34309 ft 434 kts 314°
2026-05-05 13:05 64.75187 -23.81792 34299 ft 432 kts 314°
2026-05-05 13:05 64.79378 -23.91830 34310 ft 433 kts 314°
2026-05-05 13:06 64.83574 -24.01928 34326 ft 434 kts 314°
2026-05-05 13:06 64.87784 -24.12108 34330 ft 435 kts 314°
2026-05-05 13:07 64.91954 -24.22240 34334 ft 435 kts 314°
2026-05-05 13:07 64.96151 -24.32485 34329 ft 436 kts 314°
2026-05-05 13:08 65.00337 -24.42752 34338 ft 435 kts 314°
2026-05-05 13:08 65.04506 -24.53030 34345 ft 437 kts 314°
2026-05-05 13:09 65.08686 -24.63384 34335 ft 436 kts 314°
2026-05-05 13:09 65.12849 -24.73743 34355 ft 436 kts 313°
2026-05-05 13:10 65.17009 -24.84149 34350 ft 435 kts 313°
2026-05-05 13:10 65.21136 -24.94520 34363 ft 437 kts 313°
2026-05-05 13:11 65.25295 -25.05025 34364 ft 437 kts 313°
2026-05-05 13:11 65.29434 -25.15529 34374 ft 437 kts 313°
2026-05-05 13:12 65.33576 -25.26092 34379 ft 438 kts 313°
2026-05-05 13:12 65.37721 -25.36714 34387 ft 438 kts 314°
2026-05-05 13:13 65.41849 -25.47348 34397 ft 439 kts 314°
2026-05-05 13:13 65.45987 -25.58059 34394 ft 438 kts 314°
2026-05-05 13:14 65.50081 -25.68710 34390 ft 438 kts 313°
2026-05-05 13:14 65.54199 -25.79477 34408 ft 439 kts 313°
2026-05-05 13:15 65.58315 -25.90291 34413 ft 440 kts 313°
2026-05-05 13:15 65.62414 -26.01116 34410 ft 439 kts 313°
2026-05-05 13:16 65.66512 -26.11992 34420 ft 439 kts 313°
2026-05-05 13:16 65.70596 -26.22891 34420 ft 440 kts 313°
2026-05-05 13:17 65.74680 -26.33840 34421 ft 440 kts 313°
2026-05-05 13:17 65.78767 -26.44855 34428 ft 440 kts 313°
2026-05-05 13:18 65.82843 -26.55895 34434 ft 440 kts 313°
2026-05-05 13:18 65.86914 -26.66980 34434 ft 440 kts 312°
2026-05-05 13:19 65.90968 -26.78075 34437 ft 439 kts 312°
2026-05-05 13:19 65.95013 -26.89202 34437 ft 440 kts 312°
2026-05-05 13:20 65.99068 -27.00413 34458 ft 442 kts 312°
2026-05-05 13:20 66.03117 -27.11670 34462 ft 441 kts 312°
2026-05-05 13:21 66.07133 -27.22887 34462 ft 440 kts 312°
2026-05-05 13:21 66.11174 -27.34238 34473 ft 441 kts 312°
2026-05-05 13:22 66.15211 -27.45636 34467 ft 441 kts 313°
2026-05-05 13:22 66.19208 -27.56979 34469 ft 441 kts 313°
2026-05-05 13:23 66.23224 -27.68439 34478 ft 441 kts 311°
2026-05-05 13:23 66.27226 -27.79916 34476 ft 441 kts 312°
2026-05-05 13:24 66.31209 -27.91403 34477 ft 442 kts 312°
2026-05-05 13:24 66.35184 -28.02926 34472 ft 441 kts 312°
2026-05-05 13:25 66.39163 -28.14523 34468 ft 440 kts 312°
2026-05-05 13:25 66.43117 -28.26108 34477 ft 441 kts 312°
2026-05-05 13:26 66.47040 -28.37663 34485 ft 440 kts 312°
2026-05-05 13:26 66.50987 -28.49352 34499 ft 441 kts 312°
2026-05-05 13:27 66.54933 -28.61101 34497 ft 441 kts 312°
2026-05-05 13:27 66.58847 -28.72818 34506 ft 442 kts 311°
2026-05-05 13:28 66.62764 -28.84607 34508 ft 441 kts 311°
2026-05-05 13:28 66.66681 -28.96460 34510 ft 441 kts 311°
2026-05-05 13:29 66.70575 -29.08309 34516 ft 443 kts 311°
2026-05-05 13:29 66.74474 -29.20239 34511 ft 442 kts 311°
2026-05-05 13:30 66.78348 -29.32155 34504 ft 441 kts 311°
2026-05-05 13:30 66.82215 -29.44114 34503 ft 441 kts 311°
2026-05-05 13:31 66.86086 -29.56155 34509 ft 442 kts 311°
2026-05-05 13:31 66.89947 -29.68229 34509 ft 441 kts 310°
2026-05-05 13:32 66.93811 -29.80381 34513 ft 441 kts 310°
2026-05-05 13:32 66.97652 -29.92526 34523 ft 442 kts 310°
2026-05-05 13:33 67.01192 -30.05290 34522 ft 444 kts 305°
2026-05-05 13:33 67.04548 -30.18502 34528 ft 443 kts 305°
2026-05-05 13:34 67.07870 -30.31767 34530 ft 443 kts 305°
2026-05-05 13:34 67.11173 -30.45108 34542 ft 443 kts 305°
2026-05-05 13:35 67.14446 -30.58445 34534 ft 442 kts 305°
2026-05-05 13:35 67.17718 -30.71876 34536 ft 443 kts 304°
2026-05-05 13:36 67.20958 -30.85268 34531 ft 443 kts 304°
2026-05-05 13:36 67.24191 -30.98717 34536 ft 441 kts 304°
2026-05-05 13:37 67.27411 -31.12201 34539 ft 441 kts 304°
2026-05-05 13:37 67.30592 -31.25603 34537 ft 442 kts 304°
2026-05-05 13:38 67.33791 -31.39168 34537 ft 441 kts 304°
2026-05-05 13:38 67.36946 -31.52628 34540 ft 440 kts 304°
2026-05-05 13:39 67.40117 -31.66240 34544 ft 440 kts 303°
2026-05-05 13:39 67.43291 -31.79950 34542 ft 442 kts 303°
2026-05-05 13:40 67.46410 -31.93516 34550 ft 440 kts 303°
2026-05-05 13:40 67.49532 -32.07174 34554 ft 440 kts 303°
2026-05-05 13:41 67.52657 -32.20937 34551 ft 439 kts 303°
2026-05-05 13:41 67.55743 -32.34607 34555 ft 439 kts 303°
2026-05-05 13:42 67.58820 -32.48328 34551 ft 439 kts 303°
2026-05-05 13:42 67.61884 -32.62080 34549 ft 437 kts 303°
2026-05-05 13:43 67.64933 -32.75853 34552 ft 439 kts 303°
2026-05-05 13:43 67.67985 -32.89725 34526 ft 439 kts 302°
2026-05-05 13:44 67.71018 -33.03604 34476 ft 437 kts 303°
2026-05-05 13:44 67.74026 -33.17458 34463 ft 438 kts 303°
2026-05-05 13:45 67.77042 -33.31437 34452 ft 439 kts 302°
2026-05-05 13:45 67.80030 -33.45379 34404 ft 438 kts 303°
2026-05-05 13:46 67.82997 -33.59312 34345 ft 438 kts 303°
2026-05-05 13:46 67.85970 -33.73365 34255 ft 438 kts 302°
2026-05-05 13:47 67.88907 -33.87339 34223 ft 437 kts 302°
2026-05-05 13:47 67.91836 -34.01373 34198 ft 438 kts 302°
2026-05-05 13:48 67.94771 -34.15519 34189 ft 438 kts 302°
2026-05-05 13:48 67.97681 -34.29651 34186 ft 436 kts 302°
2026-05-05 13:49 68.00586 -34.43841 34183 ft 436 kts 302°
2026-05-05 13:49 68.03451 -34.57939 34187 ft 435 kts 302°
2026-05-05 13:50 68.06314 -34.72113 34178 ft 435 kts 301°
2026-05-05 13:50 68.09174 -34.86372 34147 ft 435 kts 301°
2026-05-05 13:51 68.12009 -35.00604 34106 ft 435 kts 301°
2026-05-05 13:51 68.14822 -35.14823 34088 ft 433 kts 301°
2026-05-05 13:52 68.17634 -35.29131 34077 ft 434 kts 301°
2026-05-05 13:52 68.20422 -35.43413 34067 ft 432 kts 301°
2026-05-05 13:53 68.23196 -35.57724 34057 ft 431 kts 301°
2026-05-05 13:53 68.25940 -35.71978 34054 ft 431 kts 300°
2026-05-05 13:54 68.28684 -35.86333 34049 ft 430 kts 301°
2026-05-05 13:54 68.31412 -36.00693 34043 ft 429 kts 301°
2026-05-05 13:55 68.34103 -36.14964 34020 ft 429 kts 300°
2026-05-05 13:55 68.36800 -36.29363 33999 ft 428 kts 301°
2026-05-05 13:56 68.39477 -36.43758 33997 ft 429 kts 301°
2026-05-05 13:56 68.42140 -36.58179 33988 ft 428 kts 301°
2026-05-05 13:57 68.44794 -36.72646 33992 ft 428 kts 300°
2026-05-05 13:57 68.47424 -36.87091 33999 ft 428 kts 300°
2026-05-05 13:58 68.50031 -37.01514 34002 ft 426 kts 300°
2026-05-05 13:58 68.52630 -37.15985 34001 ft 427 kts 300°
2026-05-05 13:59 68.56503 -37.37753 34007 ft 426 kts 300°
2026-05-05 14:00 68.59924 -37.57167 34006 ft 425 kts 300°
2026-05-05 14:00 68.62874 -37.74068 34006 ft 426 kts 299°
2026-05-05 14:01 68.65405 -37.88684 33997 ft 424 kts 299°
2026-05-05 14:01 68.67909 -38.03243 34001 ft 422 kts 299°
2026-05-05 14:02 68.70407 -38.17877 34014 ft 422 kts 299°
2026-05-05 14:02 68.72865 -38.32377 34015 ft 421 kts 299°
2026-05-05 14:03 68.75330 -38.47025 34017 ft 421 kts 299°
2026-05-05 14:03 68.77768 -38.61628 34013 ft 422 kts 299°
2026-05-05 14:04 68.80193 -38.76255 34014 ft 420 kts 298°
2026-05-05 14:04 68.82594 -38.90847 34012 ft 417 kts 298°
2026-05-05 14:05 68.84991 -39.05513 34021 ft 418 kts 298°
2026-05-05 14:05 68.87371 -39.20195 34029 ft 418 kts 298°
2026-05-05 14:06 68.89714 -39.34755 34032 ft 416 kts 298°
2026-05-05 14:06 68.92041 -39.49319 34030 ft 415 kts 298°
2026-05-05 14:07 68.94374 -39.64029 34051 ft 415 kts 298°
2026-05-05 14:07 68.96666 -39.78593 34061 ft 416 kts 297°
2026-05-05 14:08 68.98965 -39.93315 34064 ft 414 kts 297°
2026-05-05 14:08 69.01062 -40.08236 34079 ft 417 kts 295°
2026-05-05 14:09 69.03090 -40.23265 34071 ft 416 kts 295°
2026-05-05 14:09 69.05098 -40.38353 34093 ft 414 kts 295°
2026-05-05 14:10 69.07081 -40.53425 34094 ft 414 kts 295°
2026-05-05 14:10 69.09052 -40.68563 34101 ft 414 kts 295°
2026-05-05 14:11 69.10997 -40.83635 34132 ft 413 kts 295°
2026-05-05 14:11 69.12931 -40.98754 34142 ft 412 kts 294°
2026-05-05 14:12 69.14837 -41.13794 34148 ft 409 kts 294°
2026-05-05 14:12 69.16714 -41.28730 34150 ft 409 kts 294°
2026-05-05 14:13 69.18587 -41.43770 34153 ft 408 kts 295°
2026-05-05 14:13 69.20438 -41.58760 34157 ft 409 kts 294°
2026-05-05 14:14 69.22285 -41.73850 34158 ft 407 kts 294°
2026-05-05 14:14 69.24114 -41.88926 34161 ft 408 kts 294°
2026-05-05 14:15 69.25924 -42.03972 34166 ft 407 kts 294°
2026-05-05 14:15 69.27715 -42.18996 34176 ft 405 kts 294°
2026-05-05 14:16 69.29500 -42.34113 34178 ft 405 kts 294°
2026-05-05 14:16 69.30961 -42.46588 34168 ft 404 kts 294°
2026-05-05 14:17 69.33001 -42.64159 34181 ft 404 kts 294°
2026-05-05 14:17 69.34740 -42.79284 34193 ft 405 kts 293°
2026-05-05 14:18 69.36456 -42.94361 34200 ft 402 kts 292°
2026-05-05 14:18 69.38161 -43.09464 34207 ft 402 kts 293°
2026-05-05 14:19 69.39831 -43.24410 34192 ft 401 kts 292°
2026-05-05 14:19 69.41497 -43.39451 34200 ft 400 kts 292°
2026-05-05 14:20 69.43157 -43.54573 34189 ft 401 kts 292°
2026-05-05 14:20 69.44784 -43.69541 34197 ft 401 kts 291°
2026-05-05 14:21 69.46419 -43.84726 34201 ft 398 kts 291°
2026-05-05 14:21 69.48021 -43.99752 34193 ft 399 kts 292°
2026-05-05 14:22 69.49615 -44.14837 34194 ft 398 kts 291°
2026-05-05 14:22 69.51190 -44.29902 34195 ft 398 kts 291°
2026-05-05 14:23 69.52759 -44.45048 34185 ft 397 kts 291°
2026-05-05 14:23 69.54296 -44.60034 34170 ft 397 kts 291°
2026-05-05 14:24 69.55840 -44.75236 34189 ft 399 kts 290°
2026-05-05 14:24 69.57359 -44.90346 34189 ft 399 kts 290°
2026-05-05 14:25 69.58875 -45.05570 34177 ft 398 kts 290°
2026-05-05 14:25 69.60373 -45.20772 34172 ft 399 kts 290°
2026-05-05 14:26 69.61853 -45.35950 34166 ft 397 kts 290°
2026-05-05 14:26 69.63329 -45.51232 34161 ft 398 kts 290°
2026-05-05 14:27 69.64780 -45.66432 34154 ft 397 kts 289°
2026-05-05 14:27 69.66225 -45.81722 34150 ft 398 kts 289°
2026-05-05 14:28 69.67654 -45.96989 34136 ft 397 kts 289°
2026-05-05 14:28 69.69064 -46.12233 34140 ft 398 kts 289°
2026-05-05 14:29 69.70468 -46.27564 34126 ft 396 kts 289°
2026-05-05 14:29 69.71854 -46.42864 34115 ft 396 kts 289°
2026-05-05 14:30 69.73213 -46.58037 34107 ft 396 kts 289°
2026-05-05 14:30 69.74571 -46.73366 34108 ft 396 kts 288°
2026-05-05 14:31 69.75916 -46.88719 34102 ft 396 kts 288°
2026-05-05 14:31 69.77244 -47.04035 34098 ft 396 kts 288°
2026-05-05 14:32 69.78559 -47.19397 34106 ft 395 kts 288°
2026-05-05 14:32 69.79868 -47.34838 34108 ft 395 kts 287°
2026-05-05 14:33 69.81149 -47.50149 34110 ft 396 kts 287°
2026-05-05 14:33 69.82432 -47.65655 34108 ft 396 kts 287°
2026-05-05 14:34 69.83695 -47.81110 34131 ft 397 kts 287°
2026-05-05 14:34 69.84949 -47.96625 34135 ft 395 kts 287°
2026-05-05 14:35 69.86190 -48.12173 34149 ft 395 kts 286°
2026-05-05 14:35 69.87414 -48.27683 34158 ft 396 kts 286°
2026-05-05 14:36 69.88621 -48.43182 34166 ft 395 kts 286°
2026-05-05 14:36 69.89816 -48.58719 34175 ft 395 kts 286°
2026-05-05 14:37 69.90998 -48.74287 34183 ft 395 kts 285°
2026-05-05 14:37 69.92165 -48.89830 34188 ft 396 kts 285°
2026-05-05 14:38 69.93315 -49.05374 34187 ft 395 kts 285°
2026-05-05 14:38 69.94463 -49.21066 34193 ft 396 kts 285°
2026-05-05 14:39 69.95593 -49.36744 34204 ft 397 kts 285°
2026-05-05 14:39 69.96709 -49.52435 34204 ft 396 kts 285°
2026-05-05 14:40 69.97809 -49.68089 34222 ft 397 kts 284°
2026-05-05 14:40 69.98900 -49.83844 34225 ft 397 kts 284°
2026-05-05 14:41 69.99852 -49.99721 34261 ft 400 kts 279°
2026-05-05 14:41 70.00361 -50.15867 34288 ft 400 kts 279°
2026-05-05 14:42 70.00831 -50.31858 34333 ft 401 kts 278°
2026-05-05 14:42 70.01269 -50.48004 34331 ft 399 kts 278°
2026-05-05 14:43 70.01679 -50.64067 34328 ft 400 kts 278°
2026-05-05 14:43 70.02073 -50.80262 34336 ft 401 kts 277°
2026-05-05 14:44 70.02452 -50.96553 34322 ft 401 kts 276°
2026-05-05 14:44 70.02812 -51.12732 34324 ft 403 kts 276°
2026-05-05 14:45 70.03158 -51.28972 34344 ft 400 kts 276°
2026-05-05 14:45 70.03487 -51.45101 34302 ft 403 kts 276°
2026-05-05 14:46 70.03804 -51.61413 34280 ft 404 kts 276°
2026-05-05 14:46 70.04108 -51.77864 34302 ft 404 kts 275°
2026-05-05 14:47 70.04398 -51.94270 34311 ft 405 kts 275°
2026-05-05 14:47 70.04670 -52.10637 34315 ft 406 kts 275°
2026-05-05 14:48 70.04929 -52.27105 34326 ft 406 kts 275°
2026-05-05 14:48 70.05173 -52.43564 34319 ft 406 kts 275°
2026-05-05 14:49 70.05401 -52.59930 34316 ft 404 kts 275°
2026-05-05 14:49 70.05614 -52.76286 34344 ft 406 kts 274°
2026-05-05 14:50 70.05812 -52.92743 34312 ft 404 kts 274°
2026-05-05 14:50 70.05994 -53.09067 34256 ft 405 kts 274°
2026-05-05 14:51 70.06162 -53.25462 34154 ft 404 kts 274°
2026-05-05 14:51 70.06315 -53.41913 34170 ft 404 kts 274°
2026-05-05 14:52 70.06451 -53.58224 34197 ft 403 kts 274°
2026-05-05 14:52 70.06574 -53.74670 34166 ft 406 kts 272°
2026-05-05 14:53 70.06683 -53.91172 34185 ft 406 kts 273°
2026-05-05 14:53 70.06775 -54.07628 34202 ft 407 kts 273°
2026-05-05 14:54 70.06853 -54.24183 34164 ft 405 kts 273°
2026-05-05 14:54 70.06915 -54.40622 34162 ft 406 kts 273°
2026-05-05 14:55 70.06962 -54.57037 34185 ft 407 kts 272°
2026-05-05 14:55 70.06994 -54.73507 34252 ft 406 kts 271°
2026-05-05 14:56 70.07011 -54.89980 34291 ft 405 kts 271°
2026-05-05 14:56 70.07012 -55.06354 34288 ft 406 kts 272°
2026-05-05 14:57 70.06999 -55.22777 34279 ft 404 kts 271°
2026-05-05 14:57 70.06971 -55.39178 34276 ft 405 kts 271°
2026-05-05 14:58 70.06928 -55.55565 34280 ft 404 kts 271°
2026-05-05 14:58 70.06869 -55.71954 34288 ft 404 kts 270°
2026-05-05 14:59 70.06795 -55.88394 34285 ft 405 kts 270°
2026-05-05 14:59 70.06706 -56.04847 34287 ft 404 kts 270°
2026-05-05 15:00 70.06621 -56.18505 34281 ft 406 kts 270°
2026-05-05 15:00 70.06482 -56.37854 34281 ft 407 kts 270°
2026-05-05 15:01 70.06348 -56.54326 34278 ft 407 kts 269°
2026-05-05 15:01 70.06197 -56.70777 34287 ft 407 kts 269°
2026-05-05 15:02 70.06032 -56.87295 34289 ft 407 kts 269°
2026-05-05 15:02 70.05852 -57.03777 34288 ft 405 kts 268°
2026-05-05 15:03 70.05657 -57.20141 34287 ft 405 kts 268°
2026-05-05 15:03 70.05448 -57.36532 34289 ft 404 kts 268°
2026-05-05 15:04 70.05222 -57.53012 34291 ft 404 kts 268°
2026-05-05 15:04 70.04981 -57.69458 34301 ft 405 kts 267°
2026-05-05 15:05 70.04593 -57.94085 34299 ft 405 kts 267°
2026-05-05 15:06 70.04316 -58.10442 34307 ft 405 kts 267°
2026-05-05 15:06 70.04022 -58.26882 34310 ft 404 kts 267°
2026-05-05 15:07 70.03715 -58.43200 34299 ft 406 kts 267°
2026-05-05 15:07 70.03391 -58.59642 34292 ft 407 kts 266°
2026-05-05 15:08 70.03052 -58.76108 34300 ft 407 kts 266°
2026-05-05 15:08 70.02697 -58.92536 34300 ft 406 kts 266°
2026-05-05 15:09 70.02330 -59.08859 34309 ft 405 kts 266°
2026-05-05 15:09 70.01944 -59.25357 34305 ft 407 kts 265°
2026-05-05 15:10 70.01545 -59.41743 34306 ft 406 kts 265°
2026-05-05 15:10 70.01131 -59.58092 34307 ft 407 kts 265°
2026-05-05 15:11 70.00702 -59.74490 34305 ft 406 kts 264°
2026-05-05 15:11 70.00258 -59.90866 34309 ft 407 kts 264°
2026-05-05 15:12 69.99908 -60.07275 34307 ft 407 kts 266°
2026-05-05 15:12 69.99631 -60.23727 34307 ft 406 kts 266°
2026-05-05 15:13 69.99348 -60.39978 34308 ft 405 kts 266°
2026-05-05 15:13 69.99048 -60.56392 34314 ft 405 kts 266°
2026-05-05 15:14 69.98736 -60.72735 34322 ft 404 kts 265°
2026-05-05 15:14 69.98409 -60.89075 34324 ft 405 kts 265°
2026-05-05 15:15 69.98069 -61.05363 34325 ft 404 kts 265°
2026-05-05 15:15 69.97714 -61.21635 34331 ft 404 kts 265°
2026-05-05 15:16 69.97343 -61.37984 34338 ft 402 kts 264°
2026-05-05 15:16 69.96962 -61.54113 34344 ft 402 kts 264°
2026-05-05 15:17 69.96563 -61.70334 34358 ft 403 kts 263°
2026-05-05 15:17 69.96149 -61.86566 34365 ft 404 kts 263°
2026-05-05 15:18 69.95720 -62.02852 34367 ft 404 kts 264°
2026-05-05 15:18 69.95275 -62.19119 34366 ft 404 kts 263°
2026-05-05 15:19 69.94816 -62.35395 34364 ft 403 kts 263°
2026-05-05 15:19 69.94344 -62.51570 34362 ft 404 kts 263°
2026-05-05 15:20 69.93856 -62.67764 34367 ft 403 kts 262°
2026-05-05 15:20 69.93353 -62.83960 34366 ft 403 kts 262°
2026-05-05 15:21 69.92836 -63.00146 34365 ft 403 kts 262°
2026-05-05 15:21 69.92290 -63.16231 34361 ft 403 kts 259°
2026-05-05 15:22 69.90919 -63.31839 34367 ft 399 kts 251°
2026-05-05 15:22 69.89250 -63.47105 34362 ft 399 kts 251°
2026-05-05 15:23 69.87536 -63.62416 34362 ft 399 kts 251°
2026-05-05 15:23 69.85806 -63.77606 34367 ft 397 kts 250°
2026-05-05 15:24 69.84045 -63.92871 34366 ft 400 kts 250°
2026-05-05 15:24 69.82269 -64.08116 34364 ft 400 kts 250°
2026-05-05 15:25 69.80477 -64.23333 34365 ft 400 kts 250°
2026-05-05 15:25 69.78685 -64.38417 34367 ft 398 kts 250°
2026-05-05 15:26 69.76872 -64.53544 34367 ft 401 kts 249°
2026-05-05 15:26 69.75944 -64.61224 34507 ft 408 kts 249°
2026-05-05 15:26 69.75015 -64.68892 34987 ft 404 kts 248°
2026-05-05 15:26 69.74094 -64.76457 35356 ft 403 kts 248°
2026-05-05 15:27 69.73154 -64.84126 35565 ft 406 kts 248°
2026-05-05 15:27 69.72214 -64.91784 35750 ft 408 kts 248°
2026-05-05 15:27 69.71275 -64.99386 35929 ft 411 kts 248°
2026-05-05 15:27 69.70319 -65.07103 36129 ft 412 kts 248°
2026-05-05 15:28 69.69352 -65.14860 36325 ft 414 kts 248°
2026-05-05 15:28 69.67400 -65.30435 36355 ft 416 kts 248°
2026-05-05 15:29 69.65435 -65.45972 36364 ft 415 kts 249°
2026-05-05 15:29 69.63446 -65.61559 36364 ft 415 kts 248°
2026-05-05 15:30 69.61456 -65.77018 36378 ft 416 kts 248°
2026-05-05 15:30 69.59444 -65.92515 36381 ft 416 kts 248°
2026-05-05 15:31 69.57420 -66.07967 36372 ft 417 kts 247°
2026-05-05 15:31 69.55383 -66.23392 36381 ft 417 kts 247°
2026-05-05 15:32 69.53334 -66.38763 36377 ft 417 kts 247°
2026-05-05 15:32 69.51266 -66.54157 36384 ft 417 kts 247°
2026-05-05 15:33 69.49180 -66.69549 36382 ft 417 kts 246°
2026-05-05 15:33 69.47079 -66.84919 36372 ft 417 kts 246°
2026-05-05 15:34 69.44968 -67.00236 36370 ft 417 kts 246°
2026-05-05 15:34 69.42847 -67.15498 36365 ft 417 kts 246°
2026-05-05 15:35 69.40713 -67.30732 36365 ft 418 kts 246°
2026-05-05 15:35 69.38557 -67.45991 36352 ft 417 kts 246°
2026-05-05 15:36 69.36388 -67.61222 36344 ft 418 kts 246°
2026-05-05 15:36 69.34219 -67.76325 36331 ft 416 kts 245°
2026-05-05 15:37 69.32037 -67.91391 36351 ft 418 kts 245°
2026-05-05 15:37 69.29835 -68.06484 36351 ft 419 kts 244°
2026-05-05 15:38 69.27613 -68.21594 36232 ft 415 kts 244°
2026-05-05 15:38 69.25401 -68.36513 36153 ft 414 kts 244°
2026-05-05 15:39 69.23161 -68.51501 36135 ft 415 kts 244°
2026-05-05 15:39 69.20933 -68.66297 36154 ft 418 kts 243°
2026-05-05 15:40 69.18667 -68.81229 36169 ft 415 kts 243°
2026-05-05 15:40 69.16383 -68.96162 36141 ft 417 kts 243°
2026-05-05 15:41 69.14098 -69.10983 36131 ft 418 kts 243°
2026-05-05 15:41 69.11783 -69.25884 36174 ft 418 kts 243°
2026-05-05 15:42 69.09459 -69.40733 36132 ft 418 kts 243°
2026-05-05 15:42 69.07124 -69.55534 36099 ft 417 kts 243°
2026-05-05 15:43 69.04775 -69.70318 36092 ft 418 kts 242°
2026-05-05 15:43 69.02412 -69.85078 36086 ft 416 kts 242°
2026-05-05 15:44 69.00080 -69.99798 36071 ft 419 kts 245°
2026-05-05 15:44 68.98720 -70.15748 36087 ft 430 kts 255°
2026-05-05 15:45 68.97716 -70.32028 36089 ft 427 kts 255°
2026-05-05 15:45 68.96646 -70.48249 36071 ft 428 kts 254°
2026-05-05 15:46 68.95533 -70.64472 36065 ft 428 kts 254°
2026-05-05 15:46 68.94397 -70.80573 36054 ft 427 kts 253°
2026-05-05 15:47 68.93228 -70.96794 36069 ft 431 kts 253°
2026-05-05 15:47 68.92047 -71.12922 36071 ft 430 kts 253°
2026-05-05 15:48 68.90842 -71.29129 36057 ft 430 kts 253°
2026-05-05 15:48 68.89621 -71.45300 36091 ft 430 kts 253°
2026-05-05 15:49 68.88376 -71.61565 36116 ft 431 kts 253°
2026-05-05 15:49 68.87121 -71.77744 36093 ft 432 kts 252°
2026-05-05 15:50 68.85853 -71.93865 36098 ft 432 kts 252°
2026-05-05 15:50 68.84565 -72.10030 36089 ft 432 kts 252°
2026-05-05 15:51 68.83260 -72.26206 36091 ft 431 kts 252°
2026-05-05 15:51 68.81934 -72.42401 36083 ft 433 kts 252°
2026-05-05 15:52 68.80608 -72.58430 36100 ft 431 kts 251°
2026-05-05 15:52 68.79253 -72.74564 36107 ft 433 kts 251°
2026-05-05 15:53 68.77887 -72.90654 36261 ft 434 kts 251°
2026-05-05 15:53 68.77199 -72.98704 36146 ft 426 kts 250°
2026-05-05 15:53 68.76527 -73.06508 36132 ft 424 kts 250°
2026-05-05 15:54 68.75140 -73.22419 36136 ft 428 kts 250°
2026-05-05 15:54 68.73742 -73.38291 36144 ft 431 kts 250°
2026-05-05 15:55 68.72312 -73.54340 36151 ft 431 kts 251°
2026-05-05 15:55 68.70885 -73.70183 36162 ft 428 kts 249°
2026-05-05 15:56 68.69432 -73.86097 36171 ft 432 kts 250°
2026-05-05 15:56 68.67973 -74.01914 36171 ft 431 kts 250°
2026-05-05 15:57 68.66477 -74.17936 36173 ft 433 kts 250°
2026-05-05 15:57 68.64969 -74.33905 36172 ft 437 kts 250°
2026-05-05 15:58 68.63442 -74.49902 36169 ft 434 kts 250°
2026-05-05 15:58 68.61906 -74.65810 36170 ft 435 kts 249°
2026-05-05 15:59 68.60350 -74.81748 36175 ft 435 kts 249°
2026-05-05 15:59 68.58765 -74.97802 36174 ft 435 kts 249°
2026-05-05 16:00 68.57176 -75.13715 36168 ft 438 kts 249°
2026-05-05 16:00 68.55575 -75.29593 36170 ft 436 kts 249°
2026-05-05 16:01 68.53941 -75.45609 36177 ft 437 kts 249°
2026-05-05 16:01 68.52299 -75.61542 36177 ft 439 kts 249°
2026-05-05 16:02 68.50701 -75.76869 36175 ft 442 kts 248°
2026-05-05 16:02 68.49016 -75.92889 36179 ft 440 kts 248°
2026-05-05 16:03 68.47311 -76.08919 36175 ft 441 kts 248°
2026-05-05 16:03 68.45592 -76.24901 36172 ft 442 kts 248°
2026-05-05 16:04 68.43861 -76.40848 36173 ft 445 kts 248°
2026-05-05 16:04 68.42089 -76.56998 36167 ft 443 kts 248°
2026-05-05 16:05 68.40320 -76.72959 36166 ft 445 kts 247°
2026-05-05 16:05 68.38529 -76.88944 36167 ft 446 kts 248°
2026-05-05 16:06 68.36716 -77.04976 36169 ft 447 kts 248°
2026-05-05 16:06 68.34885 -77.20994 36159 ft 447 kts 248°
2026-05-05 16:07 68.33040 -77.36992 36164 ft 449 kts 248°
2026-05-05 16:07 68.31172 -77.53013 36162 ft 450 kts 248°
2026-05-05 16:08 68.29292 -77.68988 36162 ft 449 kts 247°
2026-05-05 16:08 68.27389 -77.85002 36155 ft 450 kts 247°
2026-05-05 16:09 68.25473 -78.00959 36166 ft 452 kts 247°
2026-05-05 16:09 68.23528 -78.17014 36177 ft 453 kts 247°
2026-05-05 16:10 68.21564 -78.33061 36174 ft 453 kts 247°
2026-05-05 16:10 68.19584 -78.49088 36177 ft 455 kts 247°
2026-05-05 16:11 68.17588 -78.65097 36179 ft 455 kts 246°
2026-05-05 16:12 68.13547 -78.97041 36178 ft 455 kts 246°
2026-05-05 16:13 68.08374 -79.37093 36170 ft 458 kts 247°
2026-05-05 16:13 68.06275 -79.53079 36171 ft 458 kts 247°
2026-05-05 16:14 68.02015 -79.85089 36174 ft 461 kts 246°
2026-05-05 16:15 67.96900 -80.16058 36163 ft 458 kts 240°
2026-05-05 16:16 67.91254 -80.46220 36156 ft 459 kts 240°
2026-05-05 16:17 67.86932 -80.68825 36163 ft 460 kts 239°
2026-05-05 16:18 67.82575 -80.91322 36162 ft 460 kts 239°
2026-05-05 16:19 67.78181 -81.13747 36163 ft 461 kts 239°
2026-05-05 16:19 67.73734 -81.36186 36167 ft 462 kts 239°
2026-05-05 16:20 67.67754 -81.65989 36144 ft 463 kts 238°
2026-05-05 16:22 67.60171 -82.03178 36101 ft 464 kts 238°
2026-05-05 16:23 67.54043 -82.32762 36092 ft 465 kts 238°
2026-05-05 16:23 67.49403 -82.54888 36083 ft 465 kts 238°
2026-05-05 16:24 67.46276 -82.69672 36086 ft 466 kts 238°
2026-05-05 16:25 67.41554 -82.91800 36082 ft 467 kts 238°
2026-05-05 16:25 67.36809 -83.13809 36074 ft 468 kts 238°
2026-05-05 16:26 67.30432 -83.43043 36067 ft 468 kts 238°
2026-05-05 16:27 67.27216 -83.57632 36056 ft 470 kts 238°
2026-05-05 16:27 67.23975 -83.72240 36048 ft 469 kts 237°
2026-05-05 16:28 67.20719 -83.86809 36047 ft 469 kts 237°
2026-05-05 16:28 67.17473 -84.01241 36052 ft 469 kts 237°
2026-05-05 16:29 67.14193 -84.15724 36072 ft 469 kts 237°
2026-05-05 16:29 67.10912 -84.30115 36086 ft 470 kts 237°
2026-05-05 16:30 67.07604 -84.44531 36100 ft 471 kts 237°
2026-05-05 16:30 67.04271 -84.58958 36119 ft 471 kts 237°
2026-05-05 16:31 67.00945 -84.73257 36116 ft 471 kts 236°
2026-05-05 16:31 66.97588 -84.87596 36126 ft 471 kts 236°
2026-05-05 16:32 66.94223 -85.01878 36123 ft 472 kts 236°
2026-05-05 16:32 66.90831 -85.16176 36122 ft 472 kts 237°
2026-05-05 16:33 66.87427 -85.30435 36118 ft 473 kts 237°
2026-05-05 16:33 66.84029 -85.44572 36115 ft 473 kts 237°
2026-05-05 16:34 66.80592 -85.58778 36108 ft 473 kts 237°
2026-05-05 16:34 66.77143 -85.72945 36111 ft 474 kts 236°
2026-05-05 16:35 66.73684 -85.87062 36116 ft 475 kts 236°
2026-05-05 16:35 66.70205 -86.01167 36115 ft 475 kts 236°
2026-05-05 16:36 66.66727 -86.15178 36119 ft 475 kts 236°
2026-05-05 16:36 66.63216 -86.29232 36126 ft 476 kts 236°
2026-05-05 16:37 66.59685 -86.43276 36135 ft 476 kts 236°
2026-05-05 16:37 66.56144 -86.57269 36135 ft 477 kts 236°
2026-05-05 16:38 66.52580 -86.71266 36139 ft 477 kts 235°
2026-05-05 16:38 66.49016 -86.85171 36131 ft 478 kts 235°
2026-05-05 16:39 66.45409 -86.99159 36116 ft 479 kts 235°
2026-05-05 16:39 66.41795 -87.13081 36098 ft 478 kts 235°
2026-05-05 16:40 66.38173 -87.26949 36087 ft 479 kts 235°
2026-05-05 16:40 66.34555 -87.40715 36088 ft 479 kts 235°
2026-05-05 16:41 66.30896 -87.54549 36080 ft 479 kts 235°
2026-05-05 16:41 66.27246 -87.68263 36072 ft 480 kts 234°
2026-05-05 16:42 66.23572 -87.81982 36067 ft 480 kts 234°
2026-05-05 16:42 66.19855 -87.95776 36057 ft 481 kts 234°
2026-05-05 16:43 66.16160 -88.09404 36047 ft 482 kts 234°
2026-05-05 16:43 66.12424 -88.23098 36040 ft 481 kts 234°
2026-05-05 16:44 66.08705 -88.36644 36041 ft 481 kts 234°
2026-05-05 16:44 66.04962 -88.50198 36044 ft 482 kts 234°
2026-05-05 16:45 66.01186 -88.63784 36049 ft 483 kts 234°
2026-05-05 16:45 65.97404 -88.77312 36039 ft 481 kts 234°
2026-05-05 16:46 65.93636 -88.90707 36045 ft 481 kts 234°
2026-05-05 16:46 65.89821 -89.04187 36062 ft 482 kts 234°
2026-05-05 16:47 65.86019 -89.17539 36088 ft 481 kts 234°
2026-05-05 16:47 65.82198 -89.30881 36109 ft 482 kts 234°
2026-05-05 16:48 65.78369 -89.44166 36112 ft 482 kts 234°
2026-05-05 16:48 65.74503 -89.57502 36116 ft 483 kts 234°
2026-05-05 16:49 65.70627 -89.70792 36105 ft 483 kts 233°
2026-05-05 16:49 65.66754 -89.83993 36078 ft 483 kts 233°
2026-05-05 16:50 65.62837 -89.97266 36031 ft 483 kts 233°
2026-05-05 16:50 65.58955 -90.10342 36006 ft 483 kts 233°
2026-05-05 16:51 65.55032 -90.23475 36024 ft 484 kts 233°
2026-05-05 16:51 65.51079 -90.36634 36038 ft 485 kts 233°
2026-05-05 16:52 65.47115 -90.49751 36035 ft 485 kts 233°
2026-05-05 16:52 65.43161 -90.62759 36035 ft 486 kts 233°
2026-05-05 16:53 65.39193 -90.75738 36035 ft 485 kts 232°
2026-05-05 16:53 65.35197 -90.88733 36031 ft 486 kts 232°
2026-05-05 16:54 65.31191 -91.01681 36043 ft 487 kts 232°
2026-05-05 16:54 65.27173 -91.14595 36048 ft 486 kts 232°
2026-05-05 16:55 65.23128 -91.27521 36053 ft 486 kts 232°
2026-05-05 16:55 65.19085 -91.40364 36045 ft 487 kts 233°
2026-05-05 16:56 65.15036 -91.53155 36050 ft 487 kts 233°
2026-05-05 16:56 65.10936 -91.66031 36051 ft 487 kts 232°
2026-05-05 16:57 65.06853 -91.78780 36059 ft 487 kts 232°
2026-05-05 16:57 65.02766 -91.91469 36062 ft 488 kts 232°
2026-05-05 16:58 64.98273 -92.03240 36064 ft 487 kts 224°
2026-05-05 16:58 64.93435 -92.14479 36068 ft 488 kts 224°
2026-05-05 16:59 64.88573 -92.25569 36072 ft 488 kts 223°
2026-05-05 16:59 64.83678 -92.36602 36067 ft 488 kts 223°
2026-05-05 17:00 64.78799 -92.47499 36068 ft 489 kts 223°
2026-05-05 17:00 64.73875 -92.58417 36068 ft 489 kts 223°
2026-05-05 17:01 64.68916 -92.69344 36069 ft 489 kts 222°
2026-05-05 17:01 64.63972 -92.80171 36065 ft 489 kts 223°
2026-05-05 17:02 64.59015 -92.90966 36067 ft 490 kts 223°
2026-05-05 17:02 64.54043 -93.01736 36069 ft 489 kts 223°
2026-05-05 17:03 64.49082 -93.12423 36071 ft 489 kts 223°
2026-05-05 17:03 64.44115 -93.23068 36071 ft 490 kts 223°
2026-05-05 17:04 64.39109 -93.33742 36078 ft 490 kts 223°
2026-05-05 17:04 64.34108 -93.44350 36082 ft 490 kts 223°
2026-05-05 17:05 64.29095 -93.54929 36090 ft 489 kts 223°
2026-05-05 17:05 64.24084 -93.65447 36096 ft 490 kts 222°
2026-05-05 17:06 64.19077 -93.75903 36094 ft 490 kts 222°
2026-05-05 17:06 64.14013 -93.86426 36093 ft 491 kts 222°
2026-05-05 17:07 64.08952 -93.96890 36090 ft 490 kts 222°
2026-05-05 17:07 64.03906 -94.07265 36089 ft 490 kts 222°
2026-05-05 17:08 63.98852 -94.17608 36096 ft 490 kts 222°
2026-05-05 17:08 63.93802 -94.27888 36105 ft 491 kts 222°
2026-05-05 17:09 63.88729 -94.38165 36109 ft 491 kts 222°
2026-05-05 17:09 63.83627 -94.48448 36107 ft 492 kts 222°
2026-05-05 17:10 63.78497 -94.58733 36104 ft 492 kts 222°
2026-05-05 17:10 63.73399 -94.68906 36100 ft 492 kts 221°
2026-05-05 17:11 63.68257 -94.79112 36099 ft 492 kts 221°
2026-05-05 17:11 63.63127 -94.89245 36091 ft 492 kts 221°
2026-05-05 17:12 63.57997 -94.99327 36086 ft 492 kts 221°
2026-05-05 17:12 63.52869 -95.09357 36079 ft 492 kts 221°
2026-05-05 17:13 63.47702 -95.19411 36083 ft 492 kts 221°
2026-05-05 17:13 63.42574 -95.29340 36085 ft 492 kts 221°
2026-05-05 17:14 63.37394 -95.39320 36083 ft 493 kts 221°
2026-05-05 17:14 63.32177 -95.49323 36080 ft 493 kts 221°
2026-05-05 17:15 63.26985 -95.59226 36087 ft 493 kts 221°
2026-05-05 17:15 63.21754 -95.69158 36083 ft 494 kts 220°
2026-05-05 17:16 63.16576 -95.78941 36085 ft 494 kts 220°
2026-05-05 17:16 63.11360 -95.88745 36084 ft 493 kts 220°
2026-05-05 17:17 63.06146 -95.98498 36089 ft 493 kts 220°
2026-05-05 17:17 63.00942 -96.08186 36090 ft 493 kts 221°
2026-05-05 17:18 62.95693 -96.17910 36094 ft 494 kts 221°
2026-05-05 17:18 62.90469 -96.27542 36090 ft 494 kts 221°
2026-05-05 17:19 62.85225 -96.37163 36092 ft 495 kts 221°
2026-05-05 17:19 62.79962 -96.46774 36092 ft 494 kts 221°
2026-05-05 17:20 62.74678 -96.56375 36090 ft 493 kts 221°
2026-05-05 17:20 62.69414 -96.65895 36091 ft 494 kts 220°
2026-05-05 17:21 62.64127 -96.75412 36098 ft 494 kts 220°
2026-05-05 17:22 62.56192 -96.89607 36100 ft 495 kts 220°
2026-05-05 17:22 62.50869 -96.99075 36106 ft 495 kts 220°
2026-05-05 17:23 62.45571 -97.08453 36109 ft 495 kts 220°
2026-05-05 17:23 62.40231 -97.17861 36109 ft 495 kts 220°
2026-05-05 17:24 62.34919 -97.27174 36111 ft 495 kts 220°
2026-05-05 17:24 62.29582 -97.36487 36105 ft 495 kts 220°
2026-05-05 17:25 62.24255 -97.45739 36107 ft 495 kts 220°
2026-05-05 17:25 62.18920 -97.54963 36109 ft 495 kts 220°
2026-05-05 17:26 62.13549 -97.64204 36109 ft 496 kts 220°
2026-05-05 17:26 62.08205 -97.73356 36110 ft 496 kts 219°
2026-05-05 17:27 62.02811 -97.82552 36108 ft 496 kts 219°
2026-05-05 17:27 61.97449 -97.91649 36102 ft 497 kts 219°
2026-05-05 17:28 61.92063 -98.00746 36098 ft 496 kts 219°
2026-05-05 17:28 61.86662 -98.09826 36103 ft 496 kts 219°
2026-05-05 17:29 61.81267 -98.18853 36097 ft 496 kts 219°
2026-05-05 17:29 61.75840 -98.27891 36107 ft 497 kts 219°
2026-05-05 17:30 61.70463 -98.36807 36101 ft 496 kts 219°
2026-05-05 17:30 61.65040 -98.45757 36096 ft 496 kts 219°
2026-05-05 17:31 61.59595 -98.54703 36094 ft 497 kts 219°
2026-05-05 17:31 61.54168 -98.63578 36096 ft 497 kts 219°
2026-05-05 17:32 61.48742 -98.72410 36091 ft 497 kts 219°
2026-05-05 17:32 61.43287 -98.81251 36095 ft 497 kts 219°
2026-05-05 17:33 61.37856 -98.90012 36095 ft 497 kts 219°
2026-05-05 17:33 61.32379 -98.98807 36090 ft 498 kts 219°
2026-05-05 17:34 61.26895 -99.07574 36098 ft 497 kts 219°
2026-05-05 17:34 61.21398 -99.16323 36099 ft 497 kts 219°
2026-05-05 17:35 61.15951 -99.24951 36108 ft 498 kts 219°
2026-05-05 17:35 61.10473 -99.33592 36101 ft 497 kts 219°
2026-05-05 17:36 61.04954 -99.42258 36100 ft 497 kts 219°
2026-05-05 17:36 60.99411 -99.50922 36107 ft 497 kts 219°
2026-05-05 17:37 60.93917 -99.59472 36107 ft 497 kts 219°
2026-05-05 17:37 60.88430 -99.67973 36094 ft 498 kts 218°
2026-05-05 17:38 60.82908 -99.76492 36089 ft 499 kts 218°
2026-05-05 17:38 60.77363 -99.85006 36097 ft 497 kts 218°
2026-05-05 17:39 60.71848 -99.93437 36099 ft 498 kts 218°
2026-05-05 17:39 60.66328 -100.01840 36105 ft 498 kts 218°
2026-05-05 17:40 60.60813 -100.10199 36111 ft 498 kts 218°
2026-05-05 17:40 60.55249 -100.18595 36112 ft 499 kts 218°
2026-05-05 17:41 60.49675 -100.26968 36109 ft 499 kts 218°
2026-05-05 17:41 60.44154 -100.35226 36115 ft 498 kts 218°
2026-05-05 17:42 60.38564 -100.43552 36114 ft 499 kts 218°
2026-05-05 17:42 60.33012 -100.51784 36117 ft 499 kts 218°
2026-05-05 17:43 60.27417 -100.60044 36117 ft 499 kts 218°
2026-05-05 17:43 60.21808 -100.68289 36119 ft 498 kts 217°
2026-05-05 17:44 60.16226 -100.76459 36121 ft 498 kts 217°
2026-05-05 17:44 60.10640 -100.84602 36126 ft 499 kts 217°
2026-05-05 17:45 60.05029 -100.92744 36125 ft 499 kts 217°
2026-05-05 17:45 59.99322 -101.00608 36127 ft 500 kts 213°
2026-05-05 17:46 59.93426 -101.07845 36131 ft 500 kts 213°
2026-05-05 17:46 59.87501 -101.15028 36124 ft 499 kts 213°
2026-05-05 17:47 59.81584 -101.22149 36126 ft 499 kts 213°
2026-05-05 17:47 59.75664 -101.29232 36127 ft 500 kts 213°
2026-05-05 17:48 59.69716 -101.36311 36126 ft 501 kts 213°
2026-05-05 17:48 59.63753 -101.43374 36120 ft 501 kts 213°
2026-05-05 17:49 59.57796 -101.50398 36114 ft 501 kts 212°
2026-05-05 17:49 59.51808 -101.57429 36108 ft 501 kts 213°
2026-05-05 17:50 59.45853 -101.64390 36114 ft 500 kts 213°
2026-05-05 17:50 59.39851 -101.71378 36120 ft 501 kts 212°
2026-05-05 17:51 59.33836 -101.78352 36124 ft 501 kts 212°
2026-05-05 17:51 59.27865 -101.85245 36128 ft 501 kts 212°
2026-05-05 17:52 59.21854 -101.92155 36128 ft 502 kts 212°
2026-05-05 17:52 59.15820 -101.99064 36132 ft 501 kts 212°
2026-05-05 17:53 59.09829 -102.05896 36139 ft 501 kts 212°
2026-05-05 17:53 59.03817 -102.12723 36138 ft 502 kts 212°
2026-05-05 17:54 58.97823 -102.19502 36136 ft 502 kts 212°
2026-05-05 17:54 58.91774 -102.26315 36136 ft 502 kts 212°
2026-05-05 17:55 58.85748 -102.33074 36119 ft 501 kts 212°
2026-05-05 17:55 58.79768 -102.39756 36123 ft 502 kts 212°
2026-05-05 17:56 58.73735 -102.46468 36119 ft 502 kts 212°
2026-05-05 17:56 58.67681 -102.53178 36122 ft 503 kts 212°
2026-05-05 17:57 58.61660 -102.59824 36115 ft 504 kts 212°
2026-05-05 17:57 58.55599 -102.66486 36113 ft 502 kts 211°
2026-05-05 17:58 58.49562 -102.73096 36119 ft 502 kts 211°
2026-05-05 17:58 58.43527 -102.79678 36123 ft 503 kts 211°
2026-05-05 17:59 58.37443 -102.86286 36123 ft 503 kts 211°
2026-05-05 17:59 58.31406 -102.92817 36130 ft 503 kts 211°
2026-05-05 18:00 58.25317 -102.99378 36148 ft 504 kts 211°
2026-05-05 18:00 58.19231 -103.05911 36152 ft 504 kts 211°
2026-05-05 18:01 58.13161 -103.12401 36146 ft 503 kts 211°
2026-05-05 18:01 58.07071 -103.18885 36140 ft 504 kts 211°
2026-05-05 18:02 58.01004 -103.25320 36138 ft 504 kts 211°
2026-05-05 18:02 57.94896 -103.31773 36145 ft 504 kts 211°
2026-05-05 18:03 57.88797 -103.38191 36142 ft 502 kts 211°
2026-05-05 18:03 57.82729 -103.44550 36138 ft 503 kts 211°
2026-05-05 18:04 57.76652 -103.50896 36132 ft 503 kts 211°
2026-05-05 18:04 57.70526 -103.57267 36135 ft 503 kts 211°
2026-05-05 18:05 57.64460 -103.63551 36130 ft 503 kts 211°
2026-05-05 18:05 57.58329 -103.69880 36134 ft 504 kts 210°
2026-05-05 18:06 57.52237 -103.76143 36134 ft 504 kts 210°
2026-05-05 18:06 57.46124 -103.82403 36131 ft 505 kts 210°
2026-05-05 18:07 57.39987 -103.88664 36133 ft 505 kts 210°
2026-05-05 18:07 57.33841 -103.94910 36143 ft 506 kts 210°
2026-05-05 18:08 57.27694 -104.01132 36149 ft 505 kts 210°
2026-05-05 18:08 57.21574 -104.07304 36145 ft 506 kts 210°
2026-05-05 18:09 57.15436 -104.13470 36132 ft 506 kts 211°
2026-05-05 18:09 57.09282 -104.19629 36140 ft 506 kts 210°
2026-05-05 18:10 57.03093 -104.25799 36145 ft 506 kts 211°
2026-05-05 18:10 56.96942 -104.31908 36145 ft 506 kts 210°
2026-05-05 18:11 56.90771 -104.38013 36147 ft 507 kts 210°
2026-05-05 18:11 56.84556 -104.44140 36131 ft 507 kts 210°
2026-05-05 18:12 56.78359 -104.50225 36131 ft 508 kts 211°
2026-05-05 18:12 56.72134 -104.56313 36132 ft 507 kts 211°
2026-05-05 18:13 56.65948 -104.62342 36137 ft 507 kts 211°
2026-05-05 18:13 56.59706 -104.68403 36137 ft 508 kts 210°
2026-05-05 18:14 56.53505 -104.74400 36134 ft 509 kts 210°
2026-05-05 18:14 56.47270 -104.80409 36138 ft 509 kts 210°
2026-05-05 18:15 56.41034 -104.86395 36136 ft 509 kts 210°
2026-05-05 18:15 56.34826 -104.92333 36137 ft 509 kts 210°
2026-05-05 18:16 56.28556 -104.98307 36136 ft 510 kts 210°
2026-05-05 18:16 56.22323 -105.04224 36142 ft 510 kts 210°
2026-05-05 18:17 56.16090 -105.10120 36139 ft 509 kts 210°
2026-05-05 18:17 56.09846 -105.16003 36145 ft 510 kts 210°
2026-05-05 18:18 56.03554 -105.21911 36142 ft 510 kts 210°
2026-05-05 18:18 55.97292 -105.27767 36142 ft 510 kts 210°
2026-05-05 18:19 55.91047 -105.33588 36149 ft 511 kts 210°
2026-05-05 18:19 55.84754 -105.39431 36140 ft 510 kts 210°
2026-05-05 18:20 55.78445 -105.45267 36147 ft 511 kts 210°
2026-05-05 18:20 55.72150 -105.51070 36154 ft 512 kts 210°
2026-05-05 18:21 55.65857 -105.56849 36151 ft 514 kts 210°
2026-05-05 18:21 55.59549 -105.62620 36153 ft 512 kts 210°
2026-05-05 18:22 55.53229 -105.68381 36149 ft 512 kts 209°
2026-05-05 18:22 55.46898 -105.74134 36151 ft 512 kts 209°
2026-05-05 18:23 55.40584 -105.79848 36150 ft 513 kts 209°
2026-05-05 18:23 55.34239 -105.85570 36155 ft 513 kts 209°
2026-05-05 18:24 55.27916 -105.91252 36157 ft 513 kts 209°
2026-05-05 18:24 55.21594 -105.96912 36155 ft 514 kts 209°
2026-05-05 18:25 55.15252 -106.02570 36154 ft 514 kts 209°
2026-05-05 18:25 55.08898 -106.08218 36153 ft 515 kts 209°
2026-05-05 18:26 55.02519 -106.13868 36150 ft 515 kts 209°
2026-05-05 18:26 54.96132 -106.19504 36149 ft 515 kts 209°
2026-05-05 18:27 54.89763 -106.25105 36144 ft 514 kts 209°
2026-05-05 18:27 54.83397 -106.30682 36132 ft 516 kts 209°
2026-05-05 18:28 54.73808 -106.39048 36129 ft 516 kts 209°
2026-05-05 18:28 54.67430 -106.44587 36130 ft 515 kts 209°
2026-05-05 18:29 54.61042 -106.50114 36127 ft 516 kts 209°
2026-05-05 18:29 54.54608 -106.55664 36124 ft 516 kts 209°
2026-05-05 18:30 54.48230 -106.61145 36125 ft 516 kts 209°
2026-05-05 18:30 54.41833 -106.66623 36131 ft 518 kts 208°
2026-05-05 18:31 54.35381 -106.72128 36138 ft 518 kts 208°
2026-05-05 18:31 54.28937 -106.77608 36142 ft 518 kts 208°
2026-05-05 18:32 54.22514 -106.83050 36140 ft 518 kts 208°
2026-05-05 18:32 54.16077 -106.88484 36135 ft 518 kts 208°
2026-05-05 18:33 54.09612 -106.93925 36136 ft 518 kts 208°
2026-05-05 18:33 54.03179 -106.99319 36139 ft 518 kts 208°
2026-05-05 18:34 53.96753 -107.04688 36136 ft 518 kts 208°
2026-05-05 18:34 53.90279 -107.10079 36137 ft 520 kts 208°
2026-05-05 18:35 53.83792 -107.15461 36120 ft 519 kts 208°
2026-05-05 18:35 53.77344 -107.20793 36119 ft 520 kts 208°
2026-05-05 18:36 53.70874 -107.26125 36114 ft 520 kts 208°
2026-05-05 18:36 53.64408 -107.31436 36113 ft 521 kts 208°
2026-05-05 18:37 53.58088 -107.37399 36116 ft 517 kts 220°
2026-05-05 18:37 53.52878 -107.45516 36111 ft 511 kts 230°
2026-05-05 18:38 53.47870 -107.53986 36116 ft 510 kts 229°
2026-05-05 18:38 53.42853 -107.62325 36113 ft 513 kts 229°
2026-05-05 18:39 53.37774 -107.70666 36111 ft 513 kts 228°
2026-05-05 18:39 53.32641 -107.79025 36100 ft 514 kts 228°
2026-05-05 18:40 53.27529 -107.87301 36100 ft 515 kts 228°
2026-05-05 18:40 53.22406 -107.95554 36105 ft 515 kts 228°
2026-05-05 18:41 53.17278 -108.03777 36114 ft 515 kts 228°
2026-05-05 18:41 53.12127 -108.12006 36125 ft 516 kts 228°
2026-05-05 18:42 53.06934 -108.20270 36126 ft 515 kts 228°
2026-05-05 18:42 53.01772 -108.28455 36137 ft 515 kts 228°
2026-05-05 18:43 52.96595 -108.36636 36139 ft 517 kts 228°
2026-05-05 18:43 52.91431 -108.44765 36149 ft 517 kts 229°
2026-05-05 18:44 52.86210 -108.52956 36133 ft 518 kts 229°
2026-05-05 18:44 52.80989 -108.61118 36132 ft 518 kts 229°
2026-05-05 18:45 52.75766 -108.69256 36138 ft 519 kts 228°
2026-05-05 18:45 52.70539 -108.77373 36134 ft 521 kts 228°
2026-05-05 18:46 52.65306 -108.85468 36140 ft 520 kts 228°
2026-05-05 18:46 52.60043 -108.93584 36140 ft 520 kts 228°
2026-05-05 18:47 52.54745 -109.01725 36146 ft 521 kts 228°
2026-05-05 18:47 52.49451 -109.09830 36143 ft 521 kts 228°
2026-05-05 18:48 52.44171 -109.17889 36146 ft 521 kts 228°
2026-05-05 18:48 52.38853 -109.25976 36159 ft 523 kts 229°
2026-05-05 18:49 52.33525 -109.34049 36158 ft 522 kts 229°
2026-05-05 18:49 52.28229 -109.42048 36157 ft 523 kts 229°
2026-05-05 18:50 52.22883 -109.50095 36167 ft 522 kts 229°
2026-05-05 18:50 52.17520 -109.58141 36156 ft 525 kts 229°
2026-05-05 18:51 52.12192 -109.66105 36162 ft 525 kts 228°
2026-05-05 18:51 52.06800 -109.74137 36165 ft 526 kts 228°
2026-05-05 18:52 52.01395 -109.82163 36169 ft 528 kts 228°
2026-05-05 18:52 51.96012 -109.90128 36171 ft 528 kts 229°
2026-05-05 18:53 51.90588 -109.98121 35950 ft 525 kts 228°
2026-05-05 18:53 51.87794 -110.01869 36145 ft 532 kts 224°
2026-05-05 18:53 51.84844 -110.05602 36157 ft 535 kts 224°
2026-05-05 18:54 51.79007 -110.12915 36161 ft 536 kts 223°
2026-05-05 18:54 51.73132 -110.20245 36166 ft 537 kts 224°
2026-05-05 18:55 51.67216 -110.27602 36167 ft 536 kts 224°
2026-05-05 18:55 51.61310 -110.34920 36149 ft 537 kts 224°
2026-05-05 18:56 51.55416 -110.42197 36152 ft 536 kts 224°
2026-05-05 18:56 51.49482 -110.49504 36154 ft 540 kts 224°
2026-05-05 18:57 51.43528 -110.56807 36144 ft 539 kts 225°
2026-05-05 18:57 51.37619 -110.64028 36150 ft 537 kts 224°
2026-05-05 18:58 51.31672 -110.71276 36148 ft 537 kts 223°
2026-05-05 18:58 51.25685 -110.78547 36145 ft 539 kts 224°
2026-05-05 18:59 51.19713 -110.85777 36153 ft 542 kts 224°
2026-05-05 18:59 51.13752 -110.92967 36162 ft 544 kts 224°
2026-05-05 19:00 51.07762 -111.00166 36167 ft 540 kts 224°
2026-05-05 19:00 51.01726 -111.07402 36169 ft 544 kts 224°
2026-05-05 19:01 50.95691 -111.14607 36176 ft 542 kts 224°
2026-05-05 19:01 50.89732 -111.21700 36171 ft 544 kts 224°
2026-05-05 19:02 50.83701 -111.28854 36140 ft 539 kts 224°
2026-05-05 19:02 50.77679 -111.35980 36191 ft 550 kts 224°
2026-05-05 19:03 50.74611 -111.39600 36593 ft 550 kts 224°
2026-05-05 19:03 50.71573 -111.43171 37451 ft 539 kts 224°
2026-05-05 19:03 50.68568 -111.46699 38024 ft 535 kts 223°
2026-05-05 19:03 50.65604 -111.50180 38136 ft 537 kts 223°
2026-05-05 19:04 50.59661 -111.57139 38146 ft 533 kts 223°
2026-05-05 19:04 50.53704 -111.64094 38156 ft 534 kts 223°
2026-05-05 19:05 50.47708 -111.71071 38147 ft 537 kts 222°
2026-05-05 19:05 50.41772 -111.77952 38145 ft 534 kts 222°
2026-05-05 19:06 50.35775 -111.84885 38157 ft 533 kts 222°
2026-05-05 19:06 50.29802 -111.91770 38158 ft 537 kts 223°
2026-05-05 19:07 50.24836 -111.97472 38160 ft 535 kts 223°
2026-05-05 19:07 50.17859 -112.05464 38158 ft 534 kts 222°
2026-05-05 19:08 50.11817 -112.12360 38161 ft 536 kts 223°
2026-05-05 19:08 50.05829 -112.19171 38161 ft 535 kts 223°
2026-05-05 19:09 49.99853 -112.25949 38164 ft 534 kts 223°
2026-05-05 19:09 49.93837 -112.32748 38160 ft 532 kts 223°
2026-05-05 19:10 49.87857 -112.39490 38137 ft 534 kts 223°
2026-05-05 19:10 49.81862 -112.46224 38145 ft 535 kts 223°
2026-05-05 19:11 49.75812 -112.52998 38139 ft 534 kts 223°
2026-05-05 19:11 49.69781 -112.59731 38146 ft 532 kts 223°
2026-05-05 19:12 49.63793 -112.66440 38158 ft 530 kts 225°
2026-05-05 19:12 49.58373 -112.74047 38170 ft 526 kts 230°
2026-05-05 19:13 49.53088 -112.81739 38156 ft 525 kts 231°
2026-05-05 19:13 49.47775 -112.89433 38159 ft 524 kts 230°
2026-05-05 19:14 49.42474 -112.97077 38159 ft 527 kts 230°
2026-05-05 19:14 49.37131 -113.04746 38136 ft 525 kts 230°
2026-05-05 19:15 49.31804 -113.12370 38137 ft 527 kts 231°
2026-05-05 19:15 49.26456 -113.19994 38137 ft 525 kts 231°
2026-05-05 19:16 49.21173 -113.27503 38148 ft 526 kts 231°
2026-05-05 19:16 49.15805 -113.35111 38133 ft 525 kts 231°
2026-05-05 19:17 49.10441 -113.42687 38137 ft 526 kts 231°
2026-05-05 19:17 49.05098 -113.50208 38142 ft 526 kts 231°
2026-05-05 19:18 48.99449 -113.57351 38130 ft 538 kts 219°
2026-05-05 19:18 48.92857 -113.62745 38136 ft 545 kts 213°
2026-05-05 19:19 48.86081 -113.67922 38075 ft 545 kts 212°
2026-05-05 19:19 48.79339 -113.73045 38064 ft 545 kts 212°
2026-05-05 19:20 48.72586 -113.78152 38059 ft 543 kts 212°
2026-05-05 19:20 48.65807 -113.83263 38060 ft 544 kts 212°
2026-05-05 19:21 48.59057 -113.88332 38073 ft 545 kts 212°
2026-05-05 19:21 48.52287 -113.93401 38115 ft 543 kts 212°
2026-05-05 19:22 48.45500 -113.98466 38126 ft 545 kts 212°
2026-05-05 19:22 48.38760 -114.03480 38130 ft 543 kts 212°
2026-05-05 19:23 48.31963 -114.08524 38116 ft 545 kts 212°
2026-05-05 19:23 48.25204 -114.13522 38134 ft 545 kts 212°
2026-05-05 19:24 48.18434 -114.18513 38116 ft 543 kts 212°
2026-05-05 19:24 48.11649 -114.23501 38125 ft 544 kts 212°
2026-05-05 19:25 48.04882 -114.28462 38096 ft 544 kts 212°
2026-05-05 19:25 47.98098 -114.33418 38093 ft 542 kts 212°
2026-05-05 19:26 47.91357 -114.38332 38091 ft 545 kts 212°
2026-05-05 19:26 47.84512 -114.43304 38056 ft 542 kts 212°
2026-05-05 19:27 47.77734 -114.48216 38054 ft 544 kts 212°
2026-05-05 19:27 47.70965 -114.53104 38052 ft 543 kts 212°
2026-05-05 19:28 47.64193 -114.57982 38060 ft 543 kts 212°
2026-05-05 19:28 47.57413 -114.62850 38057 ft 543 kts 212°
2026-05-05 19:29 47.50623 -114.67713 38067 ft 543 kts 211°
2026-05-05 19:29 47.43795 -114.72588 38064 ft 546 kts 211°
2026-05-05 19:30 47.36983 -114.77437 38060 ft 544 kts 211°
2026-05-05 19:30 47.30183 -114.82264 38063 ft 543 kts 211°
2026-05-05 19:31 47.23382 -114.87079 38067 ft 545 kts 211°
2026-05-05 19:31 47.16599 -114.91866 38067 ft 543 kts 211°
2026-05-05 19:32 47.09762 -114.96679 38065 ft 544 kts 211°
2026-05-05 19:32 47.02958 -115.01453 38067 ft 544 kts 211°
2026-05-05 19:33 46.96166 -115.06207 38054 ft 544 kts 210°
2026-05-05 19:33 46.89368 -115.10949 38055 ft 542 kts 211°
2026-05-05 19:34 46.82571 -115.15680 38036 ft 542 kts 211°
2026-05-05 19:35 46.72353 -115.22765 38034 ft 540 kts 211°
2026-05-05 19:35 46.65564 -115.27456 38029 ft 541 kts 210°
2026-05-05 19:36 46.58768 -115.32140 38023 ft 541 kts 211°
2026-05-05 19:36 46.51994 -115.36794 38023 ft 540 kts 210°
2026-05-05 19:37 46.45220 -115.41436 38027 ft 540 kts 210°
2026-05-05 19:37 46.38426 -115.46078 38016 ft 538 kts 210°
2026-05-05 19:38 46.31670 -115.50682 38002 ft 539 kts 210°
2026-05-05 19:38 46.24928 -115.55264 37991 ft 539 kts 210°
2026-05-05 19:39 46.18169 -115.59846 37995 ft 539 kts 210°
2026-05-05 19:39 46.11372 -115.64440 37998 ft 539 kts 210°
2026-05-05 19:40 46.04584 -115.69016 38003 ft 537 kts 209°
2026-05-05 19:40 45.97839 -115.73550 38006 ft 539 kts 209°
2026-05-05 19:41 45.91083 -115.78081 38007 ft 540 kts 209°
2026-05-05 19:41 45.84264 -115.82639 37995 ft 539 kts 209°
2026-05-05 19:42 45.77467 -115.87171 38001 ft 537 kts 208°
2026-05-05 19:42 45.70720 -115.91658 38004 ft 538 kts 208°
2026-05-05 19:43 45.63901 -115.96181 38008 ft 539 kts 208°
2026-05-05 19:43 45.57131 -116.00658 38020 ft 538 kts 208°
2026-05-05 19:44 45.50326 -116.05147 38027 ft 537 kts 208°
2026-05-05 19:44 45.43546 -116.09608 38028 ft 537 kts 208°
2026-05-05 19:45 45.36758 -116.14062 38034 ft 538 kts 208°
2026-05-05 19:45 45.29975 -116.18501 38034 ft 538 kts 208°
2026-05-05 19:46 45.23205 -116.22920 38038 ft 537 kts 208°
2026-05-05 19:46 45.16419 -116.27337 38037 ft 536 kts 208°
2026-05-05 19:47 45.09645 -116.31735 38038 ft 537 kts 208°
2026-05-05 19:47 45.02922 -116.36088 38039 ft 536 kts 208°
2026-05-05 19:48 44.96143 -116.40467 38034 ft 535 kts 208°
2026-05-05 19:48 44.89377 -116.44826 38026 ft 535 kts 208°
2026-05-05 19:49 44.82588 -116.49188 38011 ft 536 kts 208°
2026-05-05 19:49 44.75833 -116.53517 37997 ft 535 kts 208°
2026-05-05 19:50 44.69073 -116.57838 37985 ft 536 kts 208°
2026-05-05 19:50 44.62300 -116.62156 37984 ft 535 kts 208°
2026-05-05 19:51 44.55546 -116.66451 37965 ft 536 kts 206°
2026-05-05 19:51 44.48725 -116.70778 37926 ft 536 kts 206°
2026-05-05 19:52 44.41949 -116.75065 37921 ft 537 kts 206°
2026-05-05 19:52 44.35149 -116.79356 37919 ft 535 kts 206°
2026-05-05 19:53 44.28365 -116.83626 37904 ft 536 kts 206°
2026-05-05 19:53 44.21617 -116.87863 37892 ft 536 kts 206°
2026-05-05 19:54 44.14810 -116.92126 37897 ft 537 kts 206°
2026-05-05 19:54 44.08021 -116.96367 37900 ft 537 kts 206°
2026-05-05 19:55 44.01187 -117.00625 37906 ft 537 kts 206°
2026-05-05 19:55 43.94411 -117.04836 37912 ft 536 kts 206°
2026-05-05 19:56 43.87602 -117.09058 37886 ft 536 kts 206°
2026-05-05 19:56 43.80777 -117.13278 37897 ft 536 kts 206°
2026-05-05 19:57 43.73967 -117.17480 37911 ft 536 kts 206°
2026-05-05 19:57 43.67170 -117.21662 37936 ft 536 kts 206°
2026-05-05 19:58 43.60344 -117.25851 37967 ft 538 kts 206°
2026-05-05 19:58 43.53516 -117.30032 37975 ft 536 kts 206°
2026-05-05 19:59 43.46747 -117.34166 37979 ft 536 kts 205°
2026-05-05 19:59 43.39897 -117.38339 37991 ft 538 kts 206°
2026-05-05 20:00 43.33078 -117.42484 37990 ft 537 kts 205°
2026-05-05 20:00 43.26230 -117.46635 37986 ft 536 kts 205°
2026-05-05 20:01 43.19421 -117.50753 37983 ft 537 kts 205°
2026-05-05 20:01 43.12599 -117.54868 37991 ft 536 kts 205°
2026-05-05 20:02 43.05761 -117.58983 38004 ft 538 kts 205°
2026-05-05 20:02 42.98880 -117.63113 38008 ft 536 kts 205°
2026-05-05 20:03 42.92052 -117.67202 37989 ft 537 kts 204°
2026-05-05 20:03 42.85199 -117.71297 37973 ft 537 kts 204°
2026-05-05 20:04 42.78381 -117.75359 37969 ft 536 kts 204°
2026-05-05 20:04 42.71483 -117.79460 37972 ft 538 kts 204°
2026-05-05 20:05 42.64616 -117.83533 37973 ft 538 kts 204°
2026-05-05 20:05 42.57778 -117.87584 37980 ft 538 kts 204°
2026-05-05 20:06 42.50986 -117.91756 37982 ft 538 kts 205°
2026-05-05 20:06 42.44161 -117.95950 37992 ft 538 kts 205°
2026-05-05 20:07 42.37369 -118.00109 37947 ft 534 kts 204°
2026-05-05 20:07 42.33958 -118.02193 38116 ft 539 kts 205°
2026-05-05 20:07 42.30573 -118.04259 38023 ft 536 kts 205°
2026-05-05 20:08 42.23771 -118.08401 38024 ft 535 kts 204°
2026-05-05 20:08 42.16959 -118.12537 38028 ft 537 kts 204°
2026-05-05 20:09 42.10111 -118.16685 38037 ft 538 kts 204°
2026-05-05 20:09 42.03285 -118.20811 38060 ft 536 kts 204°
2026-05-05 20:10 41.96514 -118.24892 38071 ft 537 kts 204°
2026-05-05 20:10 41.89688 -118.28998 38061 ft 537 kts 204°
2026-05-05 20:11 41.82870 -118.33089 38034 ft 537 kts 204°
2026-05-05 20:11 41.76055 -118.37168 37852 ft 536 kts 204°
2026-05-05 20:11 41.72650 -118.39202 38016 ft 539 kts 204°
2026-05-05 20:12 41.69231 -118.41243 38014 ft 538 kts 204°
2026-05-05 20:12 41.62427 -118.45297 38007 ft 538 kts 204°
2026-05-05 20:13 41.55581 -118.49366 38000 ft 539 kts 204°
2026-05-05 20:13 41.48759 -118.53412 38000 ft 539 kts 204°
2026-05-05 20:14 41.41884 -118.57480 38002 ft 539 kts 204°
2026-05-05 20:14 41.35045 -118.61517 38007 ft 539 kts 203°
2026-05-05 20:15 41.28173 -118.65563 38004 ft 539 kts 202°
2026-05-05 20:15 41.21343 -118.69577 37993 ft 539 kts 202°
2026-05-05 20:16 41.14499 -118.73589 37979 ft 539 kts 202°
2026-05-05 20:16 41.07607 -118.77619 37973 ft 540 kts 202°
2026-05-05 20:17 41.00737 -118.81628 37973 ft 540 kts 202°
2026-05-05 20:17 40.93884 -118.85619 37971 ft 540 kts 202°
2026-05-05 20:18 40.86989 -118.89624 37958 ft 538 kts 202°
2026-05-05 20:18 40.80145 -118.93590 37978 ft 538 kts 202°
2026-05-05 20:19 40.73309 -118.97543 37990 ft 539 kts 202°
2026-05-05 20:19 40.66430 -119.01511 37996 ft 539 kts 202°
2026-05-05 20:20 40.59603 -119.05441 38002 ft 539 kts 202°
2026-05-05 20:20 40.52726 -119.09391 38001 ft 539 kts 202°
2026-05-05 20:21 40.45863 -119.13324 38009 ft 537 kts 202°
2026-05-05 20:21 40.39017 -119.17237 38007 ft 539 kts 202°
2026-05-05 20:22 40.32148 -119.21156 38002 ft 539 kts 201°
2026-05-05 20:22 40.25268 -119.25072 38009 ft 538 kts 202°
2026-05-05 20:23 40.18408 -119.28968 38019 ft 536 kts 201°
2026-05-05 20:23 40.14932 -119.30938 38182 ft 540 kts 201°
2026-05-05 20:23 40.11513 -119.32874 37916 ft 539 kts 201°
2026-05-05 20:23 40.08093 -119.34809 38022 ft 539 kts 201°
2026-05-05 20:24 40.04608 -119.36778 38183 ft 539 kts 201°
2026-05-05 20:24 40.01208 -119.38698 38027 ft 538 kts 201°
2026-05-05 20:24 39.97761 -119.40642 38028 ft 536 kts 201°
2026-05-05 20:24 39.94358 -119.42557 37846 ft 537 kts 201°
2026-05-05 20:25 39.90929 -119.44486 38099 ft 540 kts 201°
2026-05-05 20:25 39.87474 -119.46429 37985 ft 536 kts 201°
2026-05-05 20:25 39.84026 -119.48364 38081 ft 540 kts 201°
2026-05-05 20:25 39.80584 -119.50294 37900 ft 536 kts 201°
2026-05-05 20:26 39.77161 -119.52211 38180 ft 540 kts 201°
2026-05-05 20:26 39.73744 -119.54122 38056 ft 540 kts 201°
2026-05-05 20:26 39.70300 -119.56048 37941 ft 534 kts 201°
2026-05-05 20:26 39.66874 -119.57961 38208 ft 538 kts 201°
2026-05-05 20:27 39.63409 -119.59892 38052 ft 540 kts 201°
2026-05-05 20:27 39.60006 -119.61786 37891 ft 536 kts 200°
2026-05-05 20:27 39.56463 -119.63362 38038 ft 533 kts 191°
2026-05-05 20:28 39.49233 -119.64516 37902 ft 524 kts 173°
2026-05-05 20:28 39.45617 -119.64191 38051 ft 513 kts 168°
2026-05-05 20:28 39.42086 -119.63724 38043 ft 517 kts 168°
2026-05-05 20:29 39.34911 -119.62723 38047 ft 516 kts 168°
2026-05-05 20:29 39.27768 -119.61688 38066 ft 514 kts 167°
2026-05-05 20:30 39.20640 -119.60636 38065 ft 516 kts 167°
2026-05-05 20:30 39.13516 -119.59575 38067 ft 514 kts 167°
2026-05-05 20:31 39.06390 -119.58509 38079 ft 514 kts 167°
2026-05-05 20:31 38.99309 -119.57449 38068 ft 513 kts 167°
2026-05-05 20:32 38.92244 -119.56390 38048 ft 512 kts 167°
2026-05-05 20:32 38.85146 -119.55325 38041 ft 514 kts 167°
2026-05-05 20:33 38.78055 -119.54266 38032 ft 513 kts 167°
2026-05-05 20:33 38.70967 -119.53208 38042 ft 513 kts 167°
2026-05-05 20:34 38.63909 -119.52156 38037 ft 511 kts 167°
2026-05-05 20:34 38.56850 -119.51106 38029 ft 508 kts 167°
2026-05-05 20:35 38.49799 -119.50059 38031 ft 511 kts 167°
2026-05-05 20:35 38.42744 -119.49013 38014 ft 510 kts 168°
2026-05-05 20:36 38.35703 -119.47972 38039 ft 510 kts 167°
2026-05-05 20:36 38.28632 -119.46928 38068 ft 509 kts 167°
2026-05-05 20:37 38.21581 -119.45888 38051 ft 511 kts 168°
2026-05-05 20:37 38.14513 -119.44851 38050 ft 508 kts 168°
2026-05-05 20:38 38.07489 -119.43819 38043 ft 513 kts 168°
2026-05-05 20:38 38.00438 -119.42786 38071 ft 509 kts 168°
2026-05-05 20:39 37.93397 -119.41758 38074 ft 508 kts 168°
2026-05-05 20:39 37.86350 -119.40729 38036 ft 509 kts 168°
2026-05-05 20:40 37.79330 -119.39707 38048 ft 507 kts 168°
2026-05-05 20:40 37.72306 -119.38686 38062 ft 509 kts 168°
2026-05-05 20:41 37.65310 -119.37671 38041 ft 506 kts 168°
2026-05-05 20:41 37.58280 -119.36652 38051 ft 508 kts 168°
2026-05-05 20:42 37.51253 -119.35637 38031 ft 508 kts 168°
2026-05-05 20:42 37.44267 -119.34630 38046 ft 505 kts 169°
2026-05-05 20:43 37.37277 -119.33624 38020 ft 507 kts 169°
2026-05-05 20:43 37.30256 -119.32615 38019 ft 506 kts 169°
2026-05-05 20:44 37.23311 -119.31619 38038 ft 504 kts 169°
2026-05-05 20:44 37.16344 -119.30621 38032 ft 502 kts 169°
2026-05-05 20:45 37.05882 -119.29126 38055 ft 503 kts 169°
2026-05-05 20:45 36.98963 -119.28140 38047 ft 504 kts 169°
2026-05-05 20:46 36.91992 -119.27148 38031 ft 501 kts 170°
2026-05-05 20:46 36.85020 -119.26158 38005 ft 504 kts 170°
2026-05-05 20:47 36.78095 -119.25177 38022 ft 502 kts 170°
2026-05-05 20:47 36.71133 -119.24192 38008 ft 503 kts 171°
2026-05-05 20:48 36.64160 -119.23207 38013 ft 504 kts 171°
2026-05-05 20:48 36.57212 -119.22228 38006 ft 502 kts 171°
2026-05-05 20:49 36.50286 -119.21254 38004 ft 501 kts 171°
2026-05-05 20:49 36.43326 -119.20276 38004 ft 502 kts 171°
2026-05-05 20:50 36.37543 -119.19465 38014 ft 502 kts 171°
2026-05-05 20:50 36.29435 -119.18330 38022 ft 503 kts 172°
2026-05-05 20:51 36.22479 -119.17359 38025 ft 503 kts 171°
2026-05-05 20:51 36.15547 -119.16392 38034 ft 504 kts 172°
2026-05-05 20:52 36.08580 -119.15423 38006 ft 502 kts 172°
2026-05-05 20:52 36.01647 -119.14459 38039 ft 502 kts 172°
2026-05-05 20:53 35.94676 -119.13492 38045 ft 502 kts 172°
2026-05-05 20:53 35.87751 -119.12534 38003 ft 500 kts 172°
2026-05-05 20:54 35.80790 -119.11571 38041 ft 500 kts 172°
2026-05-05 20:54 35.73857 -119.10615 38038 ft 502 kts 173°
2026-05-05 20:55 35.66968 -119.09666 38047 ft 502 kts 173°
2026-05-05 20:55 35.59988 -119.08707 38038 ft 502 kts 173°
2026-05-05 20:56 35.53073 -119.07758 38047 ft 499 kts 173°
2026-05-05 20:56 35.46163 -119.06811 38036 ft 499 kts 173°
2026-05-05 20:57 35.39253 -119.05866 38049 ft 500 kts 174°
2026-05-05 20:57 35.32331 -119.04920 38039 ft 498 kts 174°
2026-05-05 20:58 35.25418 -119.03978 38041 ft 502 kts 174°
2026-05-05 20:58 35.18510 -119.03038 38040 ft 499 kts 174°
2026-05-05 20:59 35.11567 -119.02095 38036 ft 497 kts 174°
2026-05-05 20:59 35.04666 -119.01160 38049 ft 497 kts 174°
2026-05-05 21:00 34.97837 -119.00235 38048 ft 495 kts 175°
2026-05-05 21:00 34.90999 -118.99311 37332 ft 502 kts 174°
2026-05-05 21:01 34.87494 -118.98839 36640 ft 511 kts 174°
2026-05-05 21:01 34.83900 -118.98354 35855 ft 517 kts 174°
2026-05-05 21:01 34.80320 -118.97872 35055 ft 518 kts 173°
2026-05-05 21:01 34.76797 -118.97398 34133 ft 512 kts 173°
2026-05-05 21:02 34.73293 -118.96927 33260 ft 506 kts 173°
2026-05-05 21:02 34.69766 -118.96453 32424 ft 500 kts 172°
2026-05-05 21:02 34.66353 -118.95995 31566 ft 495 kts 172°
2026-05-05 21:02 34.62963 -118.95428 30564 ft 497 kts 166°
2026-05-05 21:03 34.59487 -118.94528 29329 ft 520 kts 165°
2026-05-05 21:03 34.55963 -118.93579 28052 ft 519 kts 166°
2026-05-05 21:03 34.52438 -118.92630 26781 ft 514 kts 166°
2026-05-05 21:03 34.48988 -118.91704 25531 ft 509 kts 166°
2026-05-05 21:04 34.45568 -118.90787 24252 ft 503 kts 167°
2026-05-05 21:04 34.42210 -118.89889 22914 ft 497 kts 167°
2026-05-05 21:04 34.38869 -118.88995 21578 ft 489 kts 167°
2026-05-05 21:04 34.35564 -118.88112 20372 ft 477 kts 168°
2026-05-05 21:05 34.32453 -118.87116 19538 ft 460 kts 163°
2026-05-05 21:05 34.29434 -118.85973 18776 ft 442 kts 163°
2026-05-05 21:05 34.26555 -118.84878 18029 ft 427 kts 163°
2026-05-05 21:05 34.23759 -118.83823 17293 ft 422 kts 163°
2026-05-05 21:06 34.21002 -118.82789 16542 ft 416 kts 163°
2026-05-05 21:06 34.18223 -118.81754 15786 ft 414 kts 163°
2026-05-05 21:06 34.15501 -118.80745 15056 ft 411 kts 163°
2026-05-05 21:06 34.12801 -118.79662 14337 ft 402 kts 157°
2026-05-05 21:07 34.10398 -118.78137 13792 ft 385 kts 146°
2026-05-05 21:07 34.08355 -118.76171 13215 ft 370 kts 134°
2026-05-05 21:07 34.06710 -118.73827 12470 ft 362 kts 122°
2026-05-05 21:07 34.05549 -118.71243 12031 ft 345 kts 111°
2026-05-05 21:08 34.04719 -118.68635 11960 ft 319 kts 106°
2026-05-05 21:08 34.04098 -118.66157 11972 ft 304 kts 103°
2026-05-05 21:08 34.03462 -118.63787 11932 ft 294 kts 109°
2026-05-05 21:08 34.02808 -118.61468 11618 ft 291 kts 103°
2026-05-05 21:09 34.02382 -118.59093 11292 ft 288 kts 97°
2026-05-05 21:09 34.02090 -118.56715 10967 ft 286 kts 95°
2026-05-05 21:09 34.01850 -118.54377 10655 ft 284 kts 95°
2026-05-05 21:09 34.01622 -118.52011 10332 ft 282 kts 94°
2026-05-05 21:10 34.01402 -118.49686 10046 ft 279 kts 94°
2026-05-05 21:10 34.01184 -118.47377 9972 ft 280 kts 94°
2026-05-05 21:10 34.01134 -118.45031 9960 ft 278 kts 82°
2026-05-05 21:10 34.01382 -118.42735 9965 ft 278 kts 79°
2026-05-05 21:11 34.01678 -118.40408 9883 ft 280 kts 79°
2026-05-05 21:11 34.01973 -118.38090 9601 ft 279 kts 79°
2026-05-05 21:11 34.02260 -118.35805 9310 ft 277 kts 79°
2026-05-05 21:11 34.02548 -118.33511 9016 ft 275 kts 80°
2026-05-05 21:12 34.02831 -118.31243 8721 ft 274 kts 80°
2026-05-05 21:12 34.03107 -118.28973 8397 ft 273 kts 80°
2026-05-05 21:12 34.03371 -118.26746 7950 ft 271 kts 81°
2026-05-05 21:12 34.03639 -118.24500 7416 ft 271 kts 81°
2026-05-05 21:13 34.03907 -118.22270 6877 ft 270 kts 81°
2026-05-05 21:13 34.04183 -118.20027 6332 ft 269 kts 81°
2026-05-05 21:13 34.04460 -118.17815 5798 ft 269 kts 81°
2026-05-05 21:13 34.04744 -118.15608 5265 ft 268 kts 81°
2026-05-05 21:14 34.05037 -118.13397 4726 ft 268 kts 81°
2026-05-05 21:14 34.05341 -118.11184 4332 ft 261 kts 80°
2026-05-05 21:14 34.05454 -118.09058 4220 ft 255 kts 99°
2026-05-05 21:14 34.04781 -118.07159 4077 ft 245 kts 130°
2026-05-05 21:15 34.03439 -118.05980 3963 ft 233 kts 162°
2026-05-05 21:15 34.01912 -118.05674 3958 ft 217 kts 181°
2026-05-05 21:15 34.00414 -118.05791 3948 ft 211 kts 197°
2026-05-05 21:15 33.99156 -118.06644 3944 ft 210 kts 227°
2026-05-05 21:16 33.98426 -118.08161 3767 ft 212 kts 257°
2026-05-05 21:16 33.98223 -118.09910 3501 ft 212 kts 264°
2026-05-05 21:16 33.98090 -118.11678 3225 ft 213 kts 265°
2026-05-05 21:16 33.97928 -118.13462 2956 ft 212 kts 263°
2026-05-05 21:17 33.97746 -118.15215 2686 ft 212 kts 263°
2026-05-05 21:17 33.97566 -118.16983 2414 ft 212 kts 263°
2026-05-05 21:17 33.97390 -118.18736 2142 ft 212 kts 262°
2026-05-05 21:17 33.97214 -118.20483 1972 ft 206 kts 262°
2026-05-05 21:18 33.97019 -118.22133 1951 ft 192 kts 259°
2026-05-05 21:18 33.96868 -118.23662 1954 ft 179 kts 263°
2026-05-05 21:18 33.96746 -118.25118 1952 ft 172 kts 262°
2026-05-05 21:18 33.96609 -118.26515 1942 ft 157 kts 262°
2026-05-05 21:19 33.96484 -118.27760 1953 ft 147 kts 262°
2026-05-05 21:19 33.96361 -118.28969 1938 ft 146 kts 262°
2026-05-05 21:19 33.96240 -118.30160 1740 ft 137 kts 262°
2026-05-05 21:19 33.96125 -118.31284 1567 ft 136 kts 262°
2026-05-05 21:20 33.96008 -118.32427 1390 ft 137 kts 262°
2026-05-05 21:20 33.95893 -118.33550 1208 ft 134 kts 262°
2026-05-05 21:20 33.95779 -118.34665 1035 ft 134 kts 262°
2026-05-05 21:20 33.95663 -118.35792 857 ft 134 kts 261°
2026-05-05 21:21 33.95551 -118.36912 684 ft 136 kts 262°
2026-05-05 21:21 33.95432 -118.38049 507 ft 135 kts 261°
2026-05-05 21:21 33.95315 -118.39162 329 ft 133 kts 262°
2026-05-05 21:21 33.95205 -118.40265 145 ft 131 kts 261°
2026-05-05 21:22 33.95103 -118.41245 130 ft 98 kts 263°
2026-05-05 21:22 33.95041 -118.41863 130 ft 50 kts 263°
2026-05-05 21:22 33.94954 -118.42175 126 ft 31 kts 231°
2026-05-05 21:22 33.94860 -118.42278 125 ft 16 kts 198°
2026-05-05 21:23 33.94745 -118.42275 123 ft 16 kts 174°
2026-05-05 21:23 33.94686 -118.42222 123 ft 11 kts 90°
2026-05-05 21:23 33.94695 -118.42120 125 ft 13 kts 84°
2026-05-05 21:23 33.94709 -118.41990 126 ft 17 kts 82°
2026-05-05 21:24 33.94727 -118.41821 126 ft 22 kts 84°
2026-05-05 21:24 33.94747 -118.41611 126 ft 27 kts 83°
2026-05-05 21:24 33.94778 -118.41399 128 ft 15 kts 75°
2026-05-05 21:24 33.94791 -118.41322 129 ft 3 kts 100°
2026-05-05 21:25 33.94770 -118.41301 129 ft 5 kts 160°
2026-05-05 21:25 33.94698 -118.41286 128 ft 15 kts 173°
2026-05-05 21:25 33.94568 -118.41267 126 ft 20 kts 173°
2026-05-05 21:25 33.94470 -118.41252 126 ft 4 kts 161°
2026-05-05 21:26 33.94455 -118.41224 126 ft 4 kts 94°
2026-05-05 21:26 33.94458 -118.41180 126 ft 5 kts 84°
2026-05-05 21:26 33.94461 -118.41148 126 ft 0 kts 84°
2026-05-05 21:26 33.94461 -118.41145 126 ft 0 kts 84°